| time (UTC) | temp F | wind direction | speed MPH | gust MPH | rain 1hr in | rain 24hr in | rain mn in | humidity % | barometer mb |
| 20260831012635 | 104 | 269 | 2.0 | 7.0 | 0.00 | 0.00 | 0.00 | 30 | 1006.9 |
| 20260831012544 | 104 | 269 | 3.0 | 7.0 | 0.00 | 0.00 | 0.00 | 30 | 1006.8 |
| 20260831012426 | 104 | 269 | 3.0 | 7.0 | 0.00 | 0.00 | 0.00 | 30 | 1006.9 |
| 20260831012329 | 104 | 269 | 3.0 | 7.0 | 0.00 | 0.00 | 0.00 | 30 | 1006.9 |
| 20260831012215 | 104 | 275 | 2.0 | 5.0 | 0.00 | 0.00 | 0.00 | 30 | 1006.9 |
| 20260831012125 | 104 | 275 | 2.0 | 6.0 | 0.00 | 0.00 | 0.00 | 30 | 1007.0 |
| 20260831012027 | 104 | 275 | 1.0 | 7.0 | 0.00 | 0.00 | 0.00 | 30 | 1006.9 |
| 20260831011957 | 104 | 275 | 2.0 | 7.0 | 0.00 | 0.00 | 0.00 | 30 | 1006.9 |
| 20260831011817 | 104 | 275 | 2.0 | 7.0 | 0.00 | 0.00 | 0.00 | 30 | 1006.9 |
| 20260831011740 | 105 | 275 | 2.0 | 7.0 | 0.00 | 0.00 | 0.00 | 30 | 1007.0 |
| 20260831011627 | 105 | 276 | 2.0 | 7.0 | 0.00 | 0.00 | 0.00 | 30 | 1007.0 |
| 20260831011534 | 105 | 275 | 2.0 | 7.0 | 0.00 | 0.00 | 0.00 | 30 | 1007.0 |
| 20260831011503 | 105 | 275 | 4.0 | 7.0 | 0.00 | 0.00 | 0.00 | 30 | 1007.1 |
| 20260831011229 | 105 | 274 | 3.0 | 7.0 | 0.00 | 0.00 | 0.00 | 30 | 1007.0 |
| 20260831011130 | 105 | 271 | 1.0 | 5.0 | 0.00 | 0.00 | 0.00 | 30 | 1007.1 |
| 20260831011100 | 105 | 103 | 1.0 | 5.0 | 0.00 | 0.00 | 0.00 | 30 | 1007.1 |
| 20260831010921 | 105 | 103 | 1.0 | 5.0 | 0.00 | 0.00 | 0.00 | 30 | 1007.0 |
| 20260831010828 | 104 | 105 | 1.0 | 5.0 | 0.00 | 0.00 | 0.00 | 30 | 1007.0 |
| 20260831010730 | 104 | 250 | 1.0 | 5.0 | 0.00 | 0.00 | 0.00 | 30 | 1007.1 |
| 20260831010640 | 104 | 246 | 1.0 | 5.0 | 0.00 | 0.00 | 0.00 | 30 | 1007.1 |
| 20260831010522 | 104 | 246 | 2.0 | 5.0 | 0.00 | 0.00 | 0.00 | 30 | 1007.1 |
| 20260831010424 | 104 | 176 | 2.0 | 5.0 | 0.00 | 0.00 | 0.00 | 30 | 1007.1 |
| 20260831010355 | 104 | 176 | 2.0 | 5.0 | 0.00 | 0.00 | 0.00 | 30 | 1007.1 |
| 20260831010255 | 105 | 175 | 3.0 | 8.0 | 0.00 | 0.00 | 0.00 | 30 | 1007.1 |
| 20260831010119 | 105 | 257 | 3.0 | 8.0 | 0.00 | 0.00 | 0.00 | 30 | 1007.1 |
| 20260831010040 | 105 | 257 | 2.0 | 8.0 | 0.00 | 0.00 | 0.00 | 30 | 1007.1 |
| 20260831005930 | 105 | 257 | 1.0 | 8.0 | 0.00 | 0.00 | 0.00 | 30 | 1007.1 |
| 20260831005818 | 105 | 253 | 2.0 | 8.0 | 0.00 | 0.00 | 0.00 | 30 | 1007.1 |
| 20260831005720 | 105 | 253 | 2.0 | 8.0 | 0.00 | 0.00 | 0.00 | 30 | 1007.2 |
| 20260831005623 | 105 | 252 | 3.0 | 8.0 | 0.00 | 0.00 | 0.00 | 30 | 1007.2 |
| 20260831005552 | 105 | 252 | 4.0 | 8.0 | 0.00 | 0.00 | 0.00 | 30 | 1007.2 |
| 20260831005417 | 105 | 252 | 3.0 | 7.0 | 0.00 | 0.00 | 0.00 | 30 | 1007.3 |
| 20260831005318 | 105 | 252 | 3.0 | 7.0 | 0.00 | 0.00 | 0.00 | 30 | 1007.2 |
| 20260831005227 | 105 | 252 | 3.0 | 7.0 | 0.00 | 0.00 | 0.00 | 30 | 1007.3 |
| 20260831005128 | 105 | 251 | 1.0 | 7.0 | 0.00 | 0.00 | 0.00 | 30 | 1007.3 |
| 20260831005059 | 105 | 251 | 1.0 | 8.0 | 0.00 | 0.00 | 0.00 | 30 | 1007.3 |
| 20260831004939 | 105 | 251 | 3.0 | 8.0 | 0.00 | 0.00 | 0.00 | 30 | 1007.3 |
| 20260831004846 | 105 | 251 | 4.0 | 8.0 | 0.00 | 0.00 | 0.00 | 30 | 1007.3 |
| 20260831004800 | 105 | 267 | 4.0 | 8.0 | 0.00 | 0.00 | 0.00 | 30 | 1007.3 |
| 20260831004622 | 105 | 268 | 3.0 | 8.0 | 0.00 | 0.00 | 0.00 | 30 | 1007.4 |
| 20260831004524 | 105 | 269 | 3.0 | 8.0 | 0.00 | 0.00 | 0.00 | 29 | 1007.3 |
| 20260831004425 | 105 | 269 | 3.0 | 8.0 | 0.00 | 0.00 | 0.00 | 29 | 1007.3 |
| 20260831004336 | 106 | 269 | 4.0 | 8.0 | 0.00 | 0.00 | 0.00 | 29 | 1007.3 |
| 20260831004219 | 106 | 270 | 3.0 | 8.0 | 0.00 | 0.00 | 0.00 | 29 | 1007.3 |
| 20260831004125 | 105 | 270 | 1.0 | 6.0 | 0.00 | 0.00 | 0.00 | 30 | 1007.3 |
| 20260831004027 | 105 | 270 | 2.0 | 6.0 | 0.00 | 0.00 | 0.00 | 30 | 1007.3 |
| 20260831003937 | 105 | 270 | 2.0 | 6.0 | 0.00 | 0.00 | 0.00 | 30 | 1007.3 |
| 20260831003819 | 105 | 269 | 2.0 | 5.0 | 0.00 | 0.00 | 0.00 | 30 | 1007.3 |
| 20260831003721 | 105 | 270 | 1.0 | 4.0 | 0.00 | 0.00 | 0.00 | 30 | 1007.3 |
| 20260831003622 | 105 | 270 | 1.0 | 4.0 | 0.00 | 0.00 | 0.00 | 29 | 1007.2 |
| 20260831003536 | 105 | 270 | 1.0 | 5.0 | 0.00 | 0.00 | 0.00 | 29 | 1007.2 |
| 20260831003419 | 106 | 270 | 1.0 | 5.0 | 0.00 | 0.00 | 0.00 | 29 | 1007.1 |
| 20260831003321 | 106 | 272 | 1.0 | 5.0 | 0.00 | 0.00 | 0.00 | 29 | 1007.2 |
| 20260831003223 | 106 | 271 | 0.0 | 5.0 | 0.00 | 0.00 | 0.00 | 29 | 1007.2 |
| 20260831003134 | 106 | 271 | 0.0 | 7.0 | 0.00 | 0.00 | 0.00 | 29 | 1007.2 |
| 20260831003020 | 106 | 271 | 0.0 | 9.0 | 0.00 | 0.00 | 0.00 | 29 | 1007.2 |
| 20260831002922 | 106 | 272 | 1.0 | 9.0 | 0.00 | 0.00 | 0.00 | 29 | 1007.3 |
| 20260831002831 | 106 | 271 | 1.0 | 9.0 | 0.00 | 0.00 | 0.00 | 29 | 1007.3 |
| 20260831002752 | 105 | 271 | 2.0 | 9.0 | 0.00 | 0.00 | 0.00 | 29 | 1007.3 |
| 20260831002639 | 105 | 271 | 2.0 | 9.0 | 0.00 | 0.00 | 0.00 | 29 | 1007.3 |
| 20260831002541 | 105 | 271 | 1.0 | 9.0 | 0.00 | 0.00 | 0.00 | 29 | 1007.3 |
| 20260831002429 | 105 | 273 | 2.0 | 9.0 | 0.00 | 0.00 | 0.00 | 29 | 1007.3 |
| 20260831002330 | 106 | 273 | 4.0 | 9.0 | 0.00 | 0.00 | 0.00 | 29 | 1007.3 |
| 20260831002216 | 106 | 274 | 2.0 | 8.0 | 0.00 | 0.00 | 0.00 | 29 | 1007.3 |
| 20260831002145 | 106 | 277 | 2.0 | 8.0 | 0.00 | 0.00 | 0.00 | 29 | 1007.3 |
| 20260831002054 | 106 | 276 | 2.0 | 8.0 | 0.00 | 0.00 | 0.00 | 29 | 1007.3 |
| 20260831001915 | 106 | 227 | 2.0 | 6.0 | 0.00 | 0.00 | 0.00 | 29 | 1007.3 |
| 20260831001839 | 106 | 269 | 3.0 | 6.0 | 0.00 | 0.00 | 0.00 | 29 | 1007.3 |
| 20260831001725 | 106 | 276 | 3.0 | 6.0 | 0.00 | 0.00 | 0.00 | 29 | 1007.4 |
| 20260831001626 | 106 | 276 | 3.0 | 6.0 | 0.00 | 0.00 | 0.00 | 29 | 1007.4 |
| 20260831001520 | 106 | 277 | 2.0 | 5.0 | 0.00 | 0.00 | 0.00 | 29 | 1007.3 |
| 20260831001422 | 106 | 277 | 2.0 | 5.0 | 0.00 | 0.00 | 0.00 | 28 | 1007.3 |
| 20260831001351 | 106 | 277 | 2.0 | 5.0 | 0.00 | 0.00 | 0.00 | 28 | 1007.3 |
| 20260831001242 | 106 | 277 | 2.0 | 5.0 | 0.00 | 0.00 | 0.00 | 29 | 1007.3 |
| 20260831001128 | 106 | 277 | 2.0 | 5.0 | 0.00 | 0.00 | 0.00 | 28 | 1007.3 |
| 20260831001030 | 106 | 278 | 2.0 | 8.0 | 0.00 | 0.00 | 0.00 | 28 | 1007.3 |
| 20260831000935 | 106 | 278 | 1.0 | 10.0 | 0.00 | 0.00 | 0.00 | 28 | 1007.3 |
| 20260831000821 | 107 | 278 | 2.0 | 10.0 | 0.00 | 0.00 | 0.00 | 28 | 1007.3 |
| 20260831000751 | 107 | 277 | 2.0 | 10.0 | 0.00 | 0.00 | 0.00 | 29 | 1007.4 |
| 20260831000631 | 107 | 276 | 1.0 | 10.0 | 0.00 | 0.00 | 0.00 | 29 | 1007.5 |
| 20260831000541 | 107 | 276 | 1.0 | 10.0 | 0.00 | 0.00 | 0.00 | 29 | 1007.5 |
| 20260831000442 | 107 | 276 | 2.0 | 10.0 | 0.00 | 0.00 | 0.00 | 29 | 1007.5 |
| 20260831000325 | 107 | 274 | 4.0 | 10.0 | 0.00 | 0.00 | 0.00 | 28 | 1007.5 |
| 20260831000233 | 107 | 271 | 3.0 | 10.0 | 0.00 | 0.00 | 0.00 | 28 | 1007.5 |
| 20260831000119 | 107 | 250 | 2.0 | 9.0 | 0.00 | 0.00 | 0.00 | 28 | 1007.5 |
| 20260831000034 | 107 | 261 | 2.0 | 9.0 | 0.00 | 0.00 | 0.00 | 28 | 1007.5 |
| 20260830235951 | 107 | 260 | 3.0 | 9.0 | 0.00 | 0.00 | 0.00 | 28 | 1007.5 |
| 20260830235833 | 107 | 260 | 2.0 | 9.0 | 0.00 | 0.00 | 0.00 | 28 | 1007.5 |
| 20260830235716 | 107 | 276 | 2.0 | 8.0 | 0.00 | 0.00 | 0.00 | 28 | 1007.6 |
| 20260830235625 | 107 | 295 | 2.0 | 8.0 | 0.00 | 0.00 | 0.00 | 28 | 1007.5 |
| 20260830235526 | 107 | 259 | 1.0 | 7.0 | 0.00 | 0.00 | 0.00 | 28 | 1007.5 |
| 20260830235440 | 107 | 238 | 0.0 | 7.0 | 0.00 | 0.00 | 0.00 | 28 | 1007.5 |
| 20260830235322 | 107 | 239 | 0.0 | 8.0 | 0.00 | 0.00 | 0.00 | 28 | 1007.6 |
| 20260830235225 | 107 | 238 | 1.0 | 8.0 | 0.00 | 0.00 | 0.00 | 29 | 1007.6 |
| 20260830235126 | 106 | 238 | 2.0 | 8.0 | 0.00 | 0.00 | 0.00 | 29 | 1007.6 |
| 20260830235037 | 106 | 238 | 3.0 | 8.0 | 0.00 | 0.00 | 0.00 | 28 | 1007.6 |
| 20260830234924 | 107 | 238 | 3.0 | 8.0 | 0.00 | 0.00 | 0.00 | 28 | 1007.6 |
| 20260830234825 | 107 | 238 | 3.0 | 8.0 | 0.00 | 0.00 | 0.00 | 28 | 1007.7 |
| 20260830234735 | 107 | 247 | 3.0 | 8.0 | 0.00 | 0.00 | 0.00 | 28 | 1007.7 |
| 20260830234637 | 108 | 250 | 3.0 | 8.0 | 0.00 | 0.00 | 0.00 | 28 | 1007.6 |
| 20260830234518 | 107 | 258 | 2.0 | 7.0 | 0.00 | 0.00 | 0.00 | 28 | 1007.7 |
| 20260830234446 | 107 | 258 | 2.0 | 7.0 | 0.00 | 0.00 | 0.00 | 28 | 1007.6 |
| 20260830234326 | 107 | 256 | 2.0 | 7.0 | 0.00 | 0.00 | 0.00 | 28 | 1007.7 |
| 20260830234240 | 107 | 256 | 2.0 | 7.0 | 0.00 | 0.00 | 0.00 | 28 | 1007.6 |
| 20260830234141 | 107 | 255 | 2.0 | 7.0 | 0.00 | 0.00 | 0.00 | 28 | 1007.7 |
| 20260830234027 | 107 | 253 | 1.0 | 7.0 | 0.00 | 0.00 | 0.00 | 29 | 1007.7 |
| 20260830233930 | 107 | 233 | 2.0 | 7.0 | 0.00 | 0.00 | 0.00 | 29 | 1007.6 |
| 20260830233830 | 107 | 233 | 3.0 | 7.0 | 0.00 | 0.00 | 0.00 | 28 | 1007.7 |
| 20260830233741 | 107 | 231 | 3.0 | 7.0 | 0.00 | 0.00 | 0.00 | 28 | 1007.7 |
| 20260830233622 | 107 | 231 | 1.0 | 5.0 | 0.00 | 0.00 | 0.00 | 28 | 1007.6 |
| 20260830233528 | 107 | 233 | 1.0 | 5.0 | 0.00 | 0.00 | 0.00 | 28 | 1007.7 |
| 20260830233440 | 107 | 233 | 1.0 | 5.0 | 0.00 | 0.00 | 0.00 | 29 | 1007.7 |
| 20260830233339 | 107 | 233 | 1.0 | 7.0 | 0.00 | 0.00 | 0.00 | 29 | 1007.6 |
| 20260830233220 | 106 | 228 | 0.0 | 8.0 | 0.00 | 0.00 | 0.00 | 30 | 1007.7 |
| 20260830233149 | 106 | 228 | 0.0 | 8.0 | 0.00 | 0.00 | 0.00 | 29 | 1007.7 |
| 20260830233030 | 106 | 228 | 0.0 | 8.0 | 0.00 | 0.00 | 0.00 | 29 | 1007.7 |
| 20260830232917 | 106 | 228 | 1.0 | 8.0 | 0.00 | 0.00 | 0.00 | 28 | 1007.8 |
| 20260830232825 | 106 | 228 | 2.0 | 8.0 | 0.00 | 0.00 | 0.00 | 28 | 1007.7 |
| 20260830232726 | 106 | 228 | 3.0 | 8.0 | 0.00 | 0.00 | 0.00 | 28 | 1007.8 |
| 20260830232636 | 106 | 233 | 3.0 | 8.0 | 0.00 | 0.00 | 0.00 | 28 | 1007.8 |
| 20260830232519 | 106 | 237 | 4.0 | 8.0 | 0.00 | 0.00 | 0.00 | 28 | 1007.7 |
| 20260830232421 | 106 | 233 | 3.0 | 8.0 | 0.00 | 0.00 | 0.00 | 28 | 1007.7 |
| 20260830232323 | 106 | 240 | 3.0 | 8.0 | 0.00 | 0.00 | 0.00 | 28 | 1007.8 |
| 20260830232257 | 106 | 239 | 3.0 | 8.0 | 0.00 | 0.00 | 0.00 | 28 | 1007.8 |
| 20260830232117 | 107 | 237 | 3.0 | 8.0 | 0.00 | 0.00 | 0.00 | 28 | 1007.8 |
| 20260830232019 | 107 | 231 | 3.0 | 8.0 | 0.00 | 0.00 | 0.00 | 28 | 1007.8 |
| 20260830231928 | 107 | 231 | 3.0 | 8.0 | 0.00 | 0.00 | 0.00 | 28 | 1007.9 |
| 20260830231830 | 106 | 228 | 2.0 | 8.0 | 0.00 | 0.00 | 0.00 | 28 | 1007.8 |
| 20260830231732 | 106 | 231 | 1.0 | 8.0 | 0.00 | 0.00 | 0.00 | 28 | 1007.8 |
| 20260830231644 | 107 | 236 | 0.0 | 8.0 | 0.00 | 0.00 | 0.00 | 27 | 1007.9 |
| 20260830231552 | 107 | 236 | 0.0 | 8.0 | 0.00 | 0.00 | 0.00 | 28 | 1007.9 |
| 20260830231452 | 107 | 236 | 0.0 | 8.0 | 0.00 | 0.00 | 0.00 | 28 | 1007.9 |
| 20260830231233 | 107 | 232 | 3.0 | 10.0 | 0.00 | 0.00 | 0.00 | 27 | 1007.9 |
| 20260830231200 | 107 | 233 | 2.0 | 10.0 | 0.00 | 0.00 | 0.00 | 27 | 1008.0 |
| 20260830231021 | 107 | 230 | 1.0 | 10.0 | 0.00 | 0.00 | 0.00 | 27 | 1008.0 |
| 20260830230950 | 107 | 229 | 2.0 | 10.0 | 0.00 | 0.00 | 0.00 | 27 | 1008.0 |
| 20260830230900 | 107 | 228 | 2.0 | 10.0 | 0.00 | 0.00 | 0.00 | 27 | 1008.0 |
| 20260830230724 | 107 | 224 | 3.0 | 10.0 | 0.00 | 0.00 | 0.00 | 27 | 1007.9 |
| 20260830230626 | 107 | 216 | 4.0 | 10.0 | 0.00 | 0.00 | 0.00 | 27 | 1008.0 |
| 20260830230528 | 107 | 266 | 4.0 | 10.0 | 0.00 | 0.00 | 0.00 | 27 | 1007.8 |
| 20260830230438 | 108 | 248 | 2.0 | 8.0 | 0.00 | 0.00 | 0.00 | 27 | 1007.9 |
| 20260830230319 | 107 | 264 | 2.0 | 7.0 | 0.00 | 0.00 | 0.00 | 28 | 1008.0 |
| 20260830230222 | 107 | 264 | 2.0 | 10.0 | 0.00 | 0.00 | 0.00 | 28 | 1008.0 |
| 20260830230130 | 107 | 264 | 1.0 | 10.0 | 0.00 | 0.00 | 0.00 | 28 | 1008.0 |
| 20260830230027 | 107 | 264 | 1.0 | 10.0 | 0.00 | 0.00 | 0.00 | 28 | 1008.0 |
| 20260830225925 | 107 | 257 | 1.0 | 10.0 | 0.00 | 0.00 | 0.00 | 29 | 1008.0 |
| 20260830225828 | 107 | 257 | 1.0 | 10.0 | 0.00 | 0.00 | 0.00 | 28 | 1008.0 |
| 20260830225731 | 107 | 257 | 1.0 | 10.0 | 0.00 | 0.00 | 0.00 | 28 | 1008.0 |
| 20260830225640 | 107 | 257 | 2.0 | 10.0 | 0.00 | 0.00 | 0.00 | 28 | 1008.0 |
| 20260830225523 | 107 | 255 | 3.0 | 10.0 | 0.00 | 0.00 | 0.00 | 28 | 1008.2 |
| 20260830225428 | 107 | 246 | 2.0 | 10.0 | 0.00 | 0.00 | 0.00 | 29 | 1008.2 |
| 20260830225341 | 107 | 258 | 1.0 | 4.0 | 0.00 | 0.00 | 0.00 | 29 | 1008.2 |
| 20260830225242 | 107 | 258 | 1.0 | 3.0 | 0.00 | 0.00 | 0.00 | 29 | 1008.1 |
| 20260830225123 | 107 | 258 | 1.0 | 5.0 | 0.00 | 0.00 | 0.00 | 29 | 1008.1 |
| 20260830225034 | 107 | 258 | 1.0 | 8.0 | 0.00 | 0.00 | 0.00 | 28 | 1008.1 |
| 20260830224934 | 107 | 258 | 1.0 | 10.0 | 0.00 | 0.00 | 0.00 | 28 | 1008.2 |
| 20260830224819 | 107 | 258 | 1.0 | 10.0 | 0.00 | 0.00 | 0.00 | 29 | 1008.2 |
| 20260830224721 | 107 | 258 | 1.0 | 10.0 | 0.00 | 0.00 | 0.00 | 29 | 1008.2 |
| 20260830224630 | 107 | 258 | 1.0 | 10.0 | 0.00 | 0.00 | 0.00 | 29 | 1008.2 |
| 20260830224533 | 107 | 258 | 1.0 | 10.0 | 0.00 | 0.00 | 0.00 | 29 | 1008.2 |
| 20260830224415 | 106 | 253 | 2.0 | 10.0 | 0.00 | 0.00 | 0.00 | 29 | 1008.3 |
| 20260830224318 | 107 | 254 | 3.0 | 11.0 | 0.00 | 0.00 | 0.00 | 29 | 1008.3 |
| 20260830224231 | 107 | 258 | 3.0 | 11.0 | 0.00 | 0.00 | 0.00 | 29 | 1008.3 |
| 20260830224133 | 106 | 267 | 2.0 | 11.0 | 0.00 | 0.00 | 0.00 | 30 | 1008.3 |
| 20260830224042 | 106 | 254 | 2.0 | 11.0 | 0.00 | 0.00 | 0.00 | 29 | 1008.4 |
| 20260830223923 | 106 | 254 | 2.0 | 11.0 | 0.00 | 0.00 | 0.00 | 29 | 1008.4 |
| 20260830223824 | 106 | 254 | 3.0 | 11.0 | 0.00 | 0.00 | 0.00 | 29 | 1008.4 |
| 20260830223735 | 106 | 255 | 3.0 | 11.0 | 0.00 | 0.00 | 0.00 | 29 | 1008.4 |
| 20260830223634 | 106 | 234 | 3.0 | 11.0 | 0.00 | 0.00 | 0.00 | 29 | 1008.4 |
| 20260830223518 | 106 | 251 | 3.0 | 11.0 | 0.00 | 0.00 | 0.00 | 29 | 1008.4 |
| 20260830223428 | 107 | 223 | 3.0 | 8.0 | 0.00 | 0.00 | 0.00 | 29 | 1008.4 |
| 20260830223330 | 107 | 219 | 4.0 | 8.0 | 0.00 | 0.00 | 0.00 | 29 | 1008.3 |
| 20260830223233 | 107 | 221 | 3.0 | 8.0 | 0.00 | 0.00 | 0.00 | 29 | 1008.3 |
| 20260830223141 | 107 | 220 | 3.0 | 8.0 | 0.00 | 0.00 | 0.00 | 28 | 1008.4 |
| 20260830223043 | 107 | 212 | 3.0 | 9.0 | 0.00 | 0.00 | 0.00 | 28 | 1008.4 |
| 20260830222951 | 107 | 222 | 2.0 | 14.0 | 0.00 | 0.00 | 0.00 | 28 | 1008.4 |
| 20260830222842 | 108 | 236 | 2.0 | 14.0 | 0.00 | 0.00 | 0.00 | 27 | 1008.4 |
| 20260830222724 | 108 | 238 | 2.0 | 14.0 | 0.00 | 0.00 | 0.00 | 27 | 1008.5 |
| 20260830222643 | 108 | 319 | 2.0 | 14.0 | 0.00 | 0.00 | 0.00 | 28 | 1008.5 |
| 20260830222533 | 108 | 324 | 1.0 | 14.0 | 0.00 | 0.00 | 0.00 | 28 | 1008.5 |
| 20260830222434 | 108 | 325 | 1.0 | 14.0 | 0.00 | 0.00 | 0.00 | 28 | 1008.5 |
| 20260830222317 | 108 | 326 | 2.0 | 14.0 | 0.00 | 0.00 | 0.00 | 29 | 1008.6 |
| 20260830222223 | 108 | 326 | 3.0 | 14.0 | 0.00 | 0.00 | 0.00 | 29 | 1008.6 |
| 20260830222154 | 108 | 326 | 3.0 | 14.0 | 0.00 | 0.00 | 0.00 | 28 | 1008.6 |
| 20260830222101 | 108 | 246 | 1.0 | 5.0 | 0.00 | 0.00 | 0.00 | 28 | 1008.6 |
| 20260830221922 | 108 | 246 | 1.0 | 7.0 | 0.00 | 0.00 | 0.00 | 28 | 1008.6 |
| 20260830221823 | 108 | 246 | 2.0 | 8.0 | 0.00 | 0.00 | 0.00 | 29 | 1008.6 |
| 20260830221734 | 108 | 246 | 1.0 | 8.0 | 0.00 | 0.00 | 0.00 | 28 | 1008.6 |
| 20260830221635 | 107 | 246 | 1.0 | 8.0 | 0.00 | 0.00 | 0.00 | 28 | 1008.7 |
| 20260830221521 | 107 | 246 | 1.0 | 8.0 | 0.00 | 0.00 | 0.00 | 28 | 1008.7 |
| 20260830221423 | 108 | 246 | 1.0 | 8.0 | 0.00 | 0.00 | 0.00 | 28 | 1008.7 |
| 20260830221331 | 108 | 246 | 2.0 | 8.0 | 0.00 | 0.00 | 0.00 | 28 | 1008.7 |
| 20260830221233 | 108 | 246 | 2.0 | 8.0 | 0.00 | 0.00 | 0.00 | 28 | 1008.7 |
| 20260830221115 | 108 | 246 | 3.0 | 8.0 | 0.00 | 0.00 | 0.00 | 28 | 1008.8 |
| 20260830220820 | 107 | 244 | 1.0 | 7.0 | 0.00 | 0.00 | 0.00 | 29 | 1008.9 |
| 20260830220734 | 107 | 244 | 1.0 | 7.0 | 0.00 | 0.00 | 0.00 | 29 | 1008.9 |
| 20260830220638 | 107 | 244 | 2.0 | 7.0 | 0.00 | 0.00 | 0.00 | 30 | 1008.9 |
| 20260830220519 | 106 | 244 | 2.0 | 7.0 | 0.00 | 0.00 | 0.00 | 31 | 1009.0 |
| 20260830220428 | 106 | 242 | 1.0 | 4.0 | 0.00 | 0.00 | 0.00 | 29 | 1009.0 |
| 20260830220330 | 106 | 242 | 1.0 | 7.0 | 0.00 | 0.00 | 0.00 | 30 | 1009.1 |
| 20260830220233 | 107 | 242 | 1.0 | 7.0 | 0.00 | 0.00 | 0.00 | 29 | 1009.1 |
| 20260830220118 | 108 | 242 | 0.0 | 8.0 | 0.00 | 0.00 | 0.00 | 29 | 1009.2 |
| 20260830220038 | 108 | 242 | 0.0 | 8.0 | 0.00 | 0.00 | 0.00 | 28 | 1009.2 |
| 20260830215957 | 108 | 242 | 1.0 | 8.0 | 0.00 | 0.00 | 0.00 | 29 | 1009.1 |
| 20260830215838 | 108 | 242 | 1.0 | 10.0 | 0.00 | 0.00 | 0.00 | 29 | 1009.2 |
| 20260830215720 | 108 | 242 | 1.0 | 10.0 | 0.00 | 0.00 | 0.00 | 28 | 1009.2 |
| 20260830215630 | 108 | 242 | 1.0 | 10.0 | 0.00 | 0.00 | 0.00 | 29 | 1009.3 |
| 20260830215517 | 108 | 242 | 1.0 | 10.0 | 0.00 | 0.00 | 0.00 | 29 | 1009.3 |
| 20260830215419 | 108 | 242 | 2.0 | 10.0 | 0.00 | 0.00 | 0.00 | 29 | 1009.2 |
| 20260830215320 | 108 | 242 | 3.0 | 10.0 | 0.00 | 0.00 | 0.00 | 28 | 1009.2 |
| 20260830215249 | 108 | 238 | 3.0 | 10.0 | 0.00 | 0.00 | 0.00 | 29 | 1009.2 |
| 20260830215128 | 108 | 233 | 4.0 | 10.0 | 0.00 | 0.00 | 0.00 | 28 | 1009.4 |
| 20260830215038 | 108 | 233 | 4.0 | 10.0 | 0.00 | 0.00 | 0.00 | 28 | 1009.4 |
| 20260830214921 | 107 | 203 | 2.0 | 6.0 | 0.00 | 0.00 | 0.00 | 29 | 1009.4 |
| 20260830214834 | 107 | 203 | 1.0 | 6.0 | 0.00 | 0.00 | 0.00 | 29 | 1009.4 |
| 20260830214715 | 107 | 203 | 0.0 | 5.0 | 0.00 | 0.00 | 0.00 | 29 | 1009.3 |
| 20260830214616 | 108 | 203 | 1.0 | 5.0 | 0.00 | 0.00 | 0.00 | 29 | 1009.4 |
| 20260830214525 | 108 | 203 | 1.0 | 5.0 | 0.00 | 0.00 | 0.00 | 29 | 1009.5 |
| 20260830214428 | 108 | 203 | 1.0 | 5.0 | 0.00 | 0.00 | 0.00 | 30 | 1009.5 |
| 20260830214330 | 108 | 203 | 1.0 | 5.0 | 0.00 | 0.00 | 0.00 | 29 | 1009.5 |
| 20260830214216 | 108 | 203 | 2.0 | 5.0 | 0.00 | 0.00 | 0.00 | 29 | 1009.6 |
| 20260830214126 | 108 | 203 | 2.0 | 5.0 | 0.00 | 0.00 | 0.00 | 29 | 1009.6 |
| 20260830214028 | 107 | 203 | 1.0 | 3.0 | 0.00 | 0.00 | 0.00 | 31 | 1009.6 |
| 20260830213929 | 107 | 203 | 1.0 | 3.0 | 0.00 | 0.00 | 0.00 | 29 | 1009.6 |
| 20260830213838 | 107 | 203 | 1.0 | 3.0 | 0.00 | 0.00 | 0.00 | 29 | 1009.6 |
| 20260830213720 | 106 | 203 | 1.0 | 6.0 | 0.00 | 0.00 | 0.00 | 30 | 1009.8 |
| 20260830213626 | 106 | 203 | 0.0 | 6.0 | 0.00 | 0.00 | 0.00 | 32 | 1009.8 |
| 20260830213527 | 105 | 203 | 0.0 | 6.0 | 0.00 | 0.00 | 0.00 | 32 | 1009.8 |
| 20260830213437 | 105 | 203 | 0.0 | 6.0 | 0.00 | 0.00 | 0.00 | 31 | 1009.8 |
| 20260830213320 | 105 | 203 | 0.0 | 6.0 | 0.00 | 0.00 | 0.00 | 31 | 1009.9 |
| 20260830213222 | 105 | 203 | 1.0 | 7.0 | 0.00 | 0.00 | 0.00 | 30 | 1009.9 |
| 20260830213122 | 106 | 203 | 1.0 | 7.0 | 0.00 | 0.00 | 0.00 | 30 | 1009.9 |
| 20260830213037 | 106 | 203 | 2.0 | 7.0 | 0.00 | 0.00 | 0.00 | 30 | 1009.9 |
| 20260830212918 | 106 | 203 | 3.0 | 7.0 | 0.00 | 0.00 | 0.00 | 30 | 1010.0 |
| 20260830212820 | 106 | 202 | 2.0 | 7.0 | 0.00 | 0.00 | 0.00 | 30 | 1010.0 |
| 20260830212729 | 106 | 202 | 1.0 | 7.0 | 0.00 | 0.00 | 0.00 | 30 | 1010.0 |
| 20260830212630 | 106 | 202 | 1.0 | 7.0 | 0.00 | 0.00 | 0.00 | 31 | 1009.9 |
| 20260830212539 | 106 | 202 | 2.0 | 7.0 | 0.00 | 0.00 | 0.00 | 30 | 1010.0 |
| 20260830212421 | 107 | 202 | 4.0 | 7.0 | 0.00 | 0.00 | 0.00 | 29 | 1010.1 |
| 20260830212354 | 107 | 202 | 4.0 | 7.0 | 0.00 | 0.00 | 0.00 | 30 | 1010.1 |
| 20260830212233 | 107 | 202 | 3.0 | 6.0 | 0.00 | 0.00 | 0.00 | 29 | 1010.0 |
| 20260830212133 | 107 | 202 | 1.0 | 5.0 | 0.00 | 0.00 | 0.00 | 29 | 1010.1 |
| 20260830212041 | 108 | 202 | 1.0 | 5.0 | 0.00 | 0.00 | 0.00 | 29 | 1010.1 |
| 20260830211921 | 107 | 202 | 0.0 | 5.0 | 0.00 | 0.00 | 0.00 | 29 | 1010.1 |
| 20260830211823 | 107 | 202 | 2.0 | 5.0 | 0.00 | 0.00 | 0.00 | 30 | 1010.0 |
| 20260830211731 | 107 | 202 | 2.0 | 5.0 | 0.00 | 0.00 | 0.00 | 30 | 1010.0 |
| 20260830211616 | 107 | 201 | 1.0 | 5.0 | 0.00 | 0.00 | 0.00 | 30 | 1010.2 |
| 20260830211519 | 107 | 201 | 1.0 | 5.0 | 0.00 | 0.00 | 0.00 | 30 | 1010.1 |
| 20260830211421 | 108 | 201 | 2.0 | 7.0 | 0.00 | 0.00 | 0.00 | 31 | 1010.1 |
| 20260830211330 | 107 | 201 | 1.0 | 7.0 | 0.00 | 0.00 | 0.00 | 31 | 1010.2 |
| 20260830211233 | 107 | 200 | 1.0 | 7.0 | 0.00 | 0.00 | 0.00 | 30 | 1010.2 |
| 20260830211119 | 107 | 200 | 1.0 | 7.0 | 0.00 | 0.00 | 0.00 | 31 | 1010.2 |
| 20260830211027 | 106 | 200 | 1.0 | 9.0 | 0.00 | 0.00 | 0.00 | 31 | 1010.2 |
| 20260830210929 | 106 | 200 | 1.0 | 9.0 | 0.00 | 0.00 | 0.00 | 31 | 1010.2 |
| 20260830210848 | 106 | 200 | 0.0 | 9.0 | 0.00 | 0.00 | 0.00 | 31 | 1010.2 |
| 20260830210730 | 106 | 200 | 2.0 | 9.0 | 0.00 | 0.00 | 0.00 | 31 | 1010.3 |
| 20260830210640 | 106 | 200 | 3.0 | 9.0 | 0.00 | 0.00 | 0.00 | 31 | 1010.3 |
| 20260830210522 | 106 | 200 | 3.0 | 9.0 | 0.00 | 0.00 | 0.00 | 31 | 1010.3 |
| 20260830210444 | 106 | 199 | 4.0 | 9.0 | 0.00 | 0.00 | 0.00 | 30 | 1010.3 |
| 20260830210338 | 106 | 199 | 4.0 | 9.0 | 0.00 | 0.00 | 0.00 | 30 | 1010.3 |
| 20260830210218 | 107 | 194 | 4.0 | 8.0 | 0.00 | 0.00 | 0.00 | 30 | 1010.4 |
| 20260830210119 | 106 | 192 | 3.0 | 8.0 | 0.00 | 0.00 | 0.00 | 30 | 1010.2 |
| 20260830210041 | 106 | 191 | 2.0 | 7.0 | 0.00 | 0.00 | 0.00 | 31 | 1010.2 |
| 20260830205933 | 106 | 189 | 4.0 | 7.0 | 0.00 | 0.00 | 0.00 | 30 | 1010.3 |
| 20260830205817 | 106 | 188 | 3.0 | 7.0 | 0.00 | 0.00 | 0.00 | 30 | 1010.4 |
| 20260830205719 | 106 | 186 | 2.0 | 6.0 | 0.00 | 0.00 | 0.00 | 30 | 1010.4 |
| 20260830205648 | 106 | 186 | 3.0 | 6.0 | 0.00 | 0.00 | 0.00 | 30 | 1010.4 |
| 20260830205536 | 107 | 186 | 3.0 | 6.0 | 0.00 | 0.00 | 0.00 | 30 | 1010.4 |
| 20260830205417 | 107 | 186 | 0.0 | 6.0 | 0.00 | 0.00 | 0.00 | 30 | 1010.4 |
| 20260830205317 | 107 | 186 | 0.0 | 6.0 | 0.00 | 0.00 | 0.00 | 30 | 1010.4 |
| 20260830205219 | 107 | 186 | 0.0 | 6.0 | 0.00 | 0.00 | 0.00 | 30 | 1010.5 |
| 20260830205134 | 107 | 186 | 1.0 | 6.0 | 0.00 | 0.00 | 0.00 | 30 | 1010.5 |
| 20260830205039 | 107 | 186 | 2.0 | 6.0 | 0.00 | 0.00 | 0.00 | 30 | 1010.4 |
| 20260830204921 | 107 | 186 | 2.0 | 6.0 | 0.00 | 0.00 | 0.00 | 31 | 1010.4 |
| 20260830204823 | 106 | 186 | 3.0 | 6.0 | 0.00 | 0.00 | 0.00 | 32 | 1010.6 |
| 20260830204724 | 106 | 187 | 3.0 | 7.0 | 0.00 | 0.00 | 0.00 | 31 | 1010.5 |
| 20260830204654 | 106 | 188 | 3.0 | 7.0 | 0.00 | 0.00 | 0.00 | 31 | 1010.5 |
| 20260830204624 | 106 | 189 | 2.0 | 7.0 | 0.00 | 0.00 | 0.00 | 31 | 1010.5 |
| 20260830204419 | 106 | 190 | 1.0 | 7.0 | 0.00 | 0.00 | 0.00 | 31 | 1010.6 |
| 20260830204245 | 107 | 190 | 1.0 | 7.0 | 0.00 | 0.00 | 0.00 | 30 | 1010.7 |
| 20260830204125 | 107 | 190 | 2.0 | 7.0 | 0.00 | 0.00 | 0.00 | 30 | 1010.8 |
| 20260830204056 | 107 | 190 | 3.0 | 7.0 | 0.00 | 0.00 | 0.00 | 31 | 1010.8 |
| 20260830203944 | 107 | 186 | 3.0 | 7.0 | 0.00 | 0.00 | 0.00 | 31 | 1010.8 |
| 20260830203824 | 106 | 177 | 3.0 | 7.0 | 0.00 | 0.00 | 0.00 | 30 | 1010.7 |
| 20260830203754 | 106 | 165 | 3.0 | 7.0 | 0.00 | 0.00 | 0.00 | 30 | 1010.7 |
| 20260830203615 | 106 | 165 | 3.0 | 7.0 | 0.00 | 0.00 | 0.00 | 30 | 1010.7 |
| 20260830203518 | 107 | 165 | 3.0 | 7.0 | 0.00 | 0.00 | 0.00 | 30 | 1010.7 |
| 20260830203423 | 107 | 165 | 3.0 | 7.0 | 0.00 | 0.00 | 0.00 | 30 | 1010.8 |
| 20260830203334 | 107 | 162 | 2.0 | 7.0 | 0.00 | 0.00 | 0.00 | 30 | 1010.8 |
| 20260830203215 | 107 | 160 | 1.0 | 7.0 | 0.00 | 0.00 | 0.00 | 30 | 1010.9 |
| 20260830203117 | 107 | 160 | 1.0 | 7.0 | 0.00 | 0.00 | 0.00 | 30 | 1011.0 |
| 20260830203019 | 107 | 160 | 2.0 | 7.0 | 0.00 | 0.00 | 0.00 | 30 | 1011.0 |
| 20260830202928 | 107 | 160 | 2.0 | 7.0 | 0.00 | 0.00 | 0.00 | 31 | 1010.9 |
| 20260830202815 | 107 | 158 | 2.0 | 7.0 | 0.00 | 0.00 | 0.00 | 30 | 1011.0 |
| 20260830202737 | 106 | 158 | 2.0 | 7.0 | 0.00 | 0.00 | 0.00 | 30 | 1011.1 |
| 20260830202625 | 106 | 149 | 2.0 | 6.0 | 0.00 | 0.00 | 0.00 | 33 | 1011.1 |
| 20260830202525 | 106 | 149 | 2.0 | 6.0 | 0.00 | 0.00 | 0.00 | 30 | 1011.1 |
| 20260830202456 | 106 | 149 | 2.0 | 6.0 | 0.00 | 0.00 | 0.00 | 31 | 1011.1 |
| 20260830202318 | 106 | 147 | 1.0 | 6.0 | 0.00 | 0.00 | 0.00 | 32 | 1011.0 |
| 20260830202222 | 106 | 147 | 1.0 | 6.0 | 0.00 | 0.00 | 0.00 | 30 | 1011.1 |
| 20260830202133 | 106 | 147 | 1.0 | 6.0 | 0.00 | 0.00 | 0.00 | 31 | 1011.1 |
| 20260830202033 | 105 | 147 | 1.0 | 6.0 | 0.00 | 0.00 | 0.00 | 31 | 1011.2 |
| 20260830202001 | 105 | 147 | 2.0 | 6.0 | 0.00 | 0.00 | 0.00 | 31 | 1011.2 |
| 20260830201822 | 105 | 147 | 2.0 | 6.0 | 0.00 | 0.00 | 0.00 | 31 | 1011.2 |
| 20260830201745 | 105 | 146 | 1.0 | 5.0 | 0.00 | 0.00 | 0.00 | 32 | 1011.2 |
| 20260830201633 | 104 | 146 | 1.0 | 5.0 | 0.00 | 0.00 | 0.00 | 31 | 1011.2 |
| 20260830201519 | 104 | 146 | 1.0 | 5.0 | 0.00 | 0.00 | 0.00 | 31 | 1011.3 |
| 20260830201422 | 105 | 146 | 2.0 | 5.0 | 0.00 | 0.00 | 0.00 | 31 | 1011.3 |
| 20260830201323 | 105 | 146 | 2.0 | 5.0 | 0.00 | 0.00 | 0.00 | 31 | 1011.3 |
| 20260830201233 | 105 | 146 | 2.0 | 5.0 | 0.00 | 0.00 | 0.00 | 31 | 1011.3 |
| 20260830201133 | 105 | 146 | 1.0 | 5.0 | 0.00 | 0.00 | 0.00 | 31 | 1011.3 |
| 20260830201015 | 105 | 146 | 0.0 | 5.0 | 0.00 | 0.00 | 0.00 | 31 | 1011.2 |
| 20260830200922 | 105 | 146 | 1.0 | 5.0 | 0.00 | 0.00 | 0.00 | 31 | 1011.3 |
| 20260830200830 | 105 | 146 | 1.0 | 5.0 | 0.00 | 0.00 | 0.00 | 31 | 1011.4 |
| 20260830200633 | 106 | 146 | 2.0 | 5.0 | 0.00 | 0.00 | 0.00 | 30 | 1011.4 |
| 20260830200531 | 106 | 146 | 2.0 | 5.0 | 0.00 | 0.00 | 0.00 | 30 | 1011.4 |
| 20260830200440 | 106 | 146 | 0.0 | 4.0 | 0.00 | 0.00 | 0.00 | 30 | 1011.4 |
| 20260830200323 | 106 | 146 | 0.0 | 4.0 | 0.00 | 0.00 | 0.00 | 31 | 1011.4 |
| 20260830200231 | 106 | 146 | 0.0 | 8.0 | 0.00 | 0.00 | 0.00 | 31 | 1011.4 |
| 20260830200140 | 105 | 146 | 1.0 | 8.0 | 0.00 | 0.00 | 0.00 | 32 | 1011.4 |
| 20260830200051 | 105 | 146 | 2.0 | 8.0 | 0.00 | 0.00 | 0.00 | 31 | 1011.4 |
| 20260830195927 | 104 | 146 | 1.0 | 8.0 | 0.00 | 0.00 | 0.00 | 35 | 1011.4 |
| 20260830195830 | 103 | 146 | 0.0 | 8.0 | 0.00 | 0.00 | 0.00 | 33 | 1011.6 |
| 20260830195741 | 103 | 146 | 0.0 | 8.0 | 0.00 | 0.00 | 0.00 | 32 | 1011.6 |
| 20260830195625 | 104 | 146 | 1.0 | 8.0 | 0.00 | 0.00 | 0.00 | 32 | 1011.6 |
| 20260830195528 | 104 | 146 | 3.0 | 8.0 | 0.00 | 0.00 | 0.00 | 31 | 1011.6 |
| 20260830195429 | 104 | 146 | 3.0 | 8.0 | 0.00 | 0.00 | 0.00 | 31 | 1011.6 |
| 20260830195339 | 104 | 146 | 3.0 | 8.0 | 0.00 | 0.00 | 0.00 | 32 | 1011.6 |
| 20260830195222 | 104 | 146 | 2.0 | 8.0 | 0.00 | 0.00 | 0.00 | 32 | 1011.6 |
| 20260830195125 | 104 | 146 | 2.0 | 8.0 | 0.00 | 0.00 | 0.00 | 32 | 1011.6 |
| 20260830195031 | 104 | 146 | 2.0 | 8.0 | 0.00 | 0.00 | 0.00 | 31 | 1011.7 |
| 20260830194940 | 104 | 146 | 3.0 | 8.0 | 0.00 | 0.00 | 0.00 | 32 | 1011.7 |
| 20260830194843 | 104 | 146 | 3.0 | 8.0 | 0.00 | 0.00 | 0.00 | 32 | 1011.6 |
| 20260830194722 | 104 | 146 | 2.0 | 6.0 | 0.00 | 0.00 | 0.00 | 32 | 1011.6 |
| 20260830194633 | 104 | 146 | 2.0 | 6.0 | 0.00 | 0.00 | 0.00 | 32 | 1011.6 |
| 20260830194554 | 104 | 146 | 1.0 | 6.0 | 0.00 | 0.00 | 0.00 | 32 | 1011.7 |
| 20260830194442 | 104 | 146 | 2.0 | 6.0 | 0.00 | 0.00 | 0.00 | 32 | 1011.6 |
| 20260830194326 | 104 | 146 | 2.0 | 6.0 | 0.00 | 0.00 | 0.00 | 32 | 1011.7 |
| 20260830194227 | 104 | 146 | 1.0 | 6.0 | 0.00 | 0.00 | 0.00 | 32 | 1011.7 |
| 20260830194130 | 104 | 146 | 0.0 | 5.0 | 0.00 | 0.00 | 0.00 | 32 | 1011.7 |
| 20260830194039 | 104 | 146 | 0.0 | 5.0 | 0.00 | 0.00 | 0.00 | 33 | 1011.7 |
| 20260830193922 | 104 | 146 | 1.0 | 5.0 | 0.00 | 0.00 | 0.00 | 32 | 1011.7 |
| 20260830193823 | 104 | 146 | 1.0 | 5.0 | 0.00 | 0.00 | 0.00 | 32 | 1011.8 |
| 20260830193737 | 104 | 146 | 2.0 | 5.0 | 0.00 | 0.00 | 0.00 | 31 | 1011.8 |
| 20260830193639 | 104 | 146 | 3.0 | 6.0 | 0.00 | 0.00 | 0.00 | 31 | 1011.8 |
| 20260830193522 | 105 | 146 | 3.0 | 6.0 | 0.00 | 0.00 | 0.00 | 31 | 1011.7 |
| 20260830193424 | 105 | 146 | 2.0 | 6.0 | 0.00 | 0.00 | 0.00 | 31 | 1011.8 |
| 20260830193355 | 105 | 146 | 1.0 | 6.0 | 0.00 | 0.00 | 0.00 | 32 | 1011.8 |
| 20260830193235 | 105 | 146 | 2.0 | 6.0 | 0.00 | 0.00 | 0.00 | 31 | 1011.8 |
| 20260830193127 | 105 | 146 | 3.0 | 6.0 | 0.00 | 0.00 | 0.00 | 31 | 1011.9 |
| 20260830193023 | 106 | 142 | 3.0 | 6.0 | 0.00 | 0.00 | 0.00 | 30 | 1011.8 |
| 20260830192954 | 106 | 141 | 3.0 | 6.0 | 0.00 | 0.00 | 0.00 | 30 | 1011.8 |
| 20260830192840 | 106 | 141 | 2.0 | 6.0 | 0.00 | 0.00 | 0.00 | 31 | 1011.8 |
| 20260830192722 | 106 | 137 | 1.0 | 4.0 | 0.00 | 0.00 | 0.00 | 32 | 1011.9 |
| 20260830192624 | 105 | 137 | 1.0 | 4.0 | 0.00 | 0.00 | 0.00 | 33 | 1011.9 |
| 20260830192526 | 105 | 137 | 1.0 | 4.0 | 0.00 | 0.00 | 0.00 | 32 | 1012.0 |
| 20260830192435 | 105 | 137 | 2.0 | 4.0 | 0.00 | 0.00 | 0.00 | 32 | 1012.0 |
| 20260830192322 | 105 | 137 | 2.0 | 5.0 | 0.00 | 0.00 | 0.00 | 31 | 1012.0 |
| 20260830192224 | 105 | 138 | 2.0 | 5.0 | 0.00 | 0.00 | 0.00 | 31 | 1011.9 |
| 20260830192126 | 105 | 138 | 1.0 | 5.0 | 0.00 | 0.00 | 0.00 | 31 | 1012.0 |
| 20260830192035 | 105 | 138 | 1.0 | 5.0 | 0.00 | 0.00 | 0.00 | 32 | 1012.0 |
| 20260830191938 | 104 | 138 | 1.0 | 5.0 | 0.00 | 0.00 | 0.00 | 32 | 1012.1 |
| 20260830191826 | 104 | 138 | 2.0 | 5.0 | 0.00 | 0.00 | 0.00 | 32 | 1012.1 |
| 20260830191733 | 104 | 138 | 2.0 | 5.0 | 0.00 | 0.00 | 0.00 | 33 | 1012.1 |
| 20260830191635 | 104 | 138 | 2.0 | 5.0 | 0.00 | 0.00 | 0.00 | 32 | 1012.0 |
| 20260830191516 | 104 | 137 | 3.0 | 5.0 | 0.00 | 0.00 | 0.00 | 32 | 1012.2 |
| 20260830191426 | 104 | 134 | 2.0 | 5.0 | 0.00 | 0.00 | 0.00 | 32 | 1012.1 |
| 20260830191327 | 104 | 133 | 1.0 | 4.0 | 0.00 | 0.00 | 0.00 | 31 | 1012.2 |
| 20260830191236 | 105 | 133 | 0.0 | 4.0 | 0.00 | 0.00 | 0.00 | 32 | 1012.2 |
| 20260830191123 | 105 | 133 | 0.0 | 4.0 | 0.00 | 0.00 | 0.00 | 33 | 1012.2 |
| 20260830191025 | 105 | 133 | 1.0 | 4.0 | 0.00 | 0.00 | 0.00 | 31 | 1012.1 |
| 20260830190926 | 106 | 133 | 2.0 | 4.0 | 0.00 | 0.00 | 0.00 | 33 | 1012.1 |
| 20260830190836 | 105 | 133 | 1.0 | 4.0 | 0.00 | 0.00 | 0.00 | 34 | 1012.1 |
| 20260830190739 | 105 | 134 | 1.0 | 4.0 | 0.00 | 0.00 | 0.00 | 33 | 1012.2 |
| 20260830190521 | 102 | 136 | 0.0 | 4.0 | 0.00 | 0.00 | 0.00 | 36 | 1012.2 |
| 20260830190421 | 102 | 136 | 1.0 | 4.0 | 0.00 | 0.00 | 0.00 | 33 | 1012.2 |
| 20260830190333 | 102 | 136 | 2.0 | 4.0 | 0.00 | 0.00 | 0.00 | 33 | 1012.2 |
| 20260830190254 | 102 | 136 | 2.0 | 4.0 | 0.00 | 0.00 | 0.00 | 33 | 1012.3 |
| 20260830190114 | 102 | 136 | 1.0 | 4.0 | 0.00 | 0.00 | 0.00 | 33 | 1012.3 |
| 20260830190035 | 102 | 136 | 1.0 | 4.0 | 0.00 | 0.00 | 0.00 | 33 | 1012.3 |
| 20260830185926 | 102 | 136 | 1.0 | 6.0 | 0.00 | 0.00 | 0.00 | 33 | 1012.3 |
| 20260830185821 | 102 | 136 | 1.0 | 6.0 | 0.00 | 0.00 | 0.00 | 34 | 1012.5 |
| 20260830185722 | 102 | 136 | 0.0 | 6.0 | 0.00 | 0.00 | 0.00 | 34 | 1012.4 |
| 20260830185624 | 102 | 136 | 1.0 | 6.0 | 0.00 | 0.00 | 0.00 | 34 | 1012.3 |
| 20260830185534 | 102 | 136 | 2.0 | 6.0 | 0.00 | 0.00 | 0.00 | 33 | 1012.3 |
| 20260830185433 | 102 | 136 | 2.0 | 6.0 | 0.00 | 0.00 | 0.00 | 33 | 1012.4 |
| 20260830185315 | 102 | 136 | 2.0 | 6.0 | 0.00 | 0.00 | 0.00 | 33 | 1012.5 |
| 20260830185223 | 102 | 136 | 2.0 | 6.0 | 0.00 | 0.00 | 0.00 | 34 | 1012.4 |
| 20260830185129 | 102 | 136 | 2.0 | 4.0 | 0.00 | 0.00 | 0.00 | 33 | 1012.5 |
| 20260830185039 | 102 | 136 | 2.0 | 4.0 | 0.00 | 0.00 | 0.00 | 33 | 1012.5 |
| 20260830184922 | 102 | 136 | 2.0 | 4.0 | 0.00 | 0.00 | 0.00 | 33 | 1012.4 |
| 20260830184825 | 102 | 136 | 2.0 | 4.0 | 0.00 | 0.00 | 0.00 | 33 | 1012.5 |
| 20260830184755 | 102 | 136 | 1.0 | 4.0 | 0.00 | 0.00 | 0.00 | 33 | 1012.5 |
| 20260830184637 | 103 | 136 | 2.0 | 4.0 | 0.00 | 0.00 | 0.00 | 32 | 1012.5 |
| 20260830184522 | 103 | 136 | 2.0 | 4.0 | 0.00 | 0.00 | 0.00 | 33 | 1012.5 |
| 20260830184433 | 103 | 136 | 2.0 | 5.0 | 0.00 | 0.00 | 0.00 | 33 | 1012.5 |
| 20260830184334 | 102 | 136 | 1.0 | 5.0 | 0.00 | 0.00 | 0.00 | 33 | 1012.6 |
| 20260830184215 | 102 | 136 | 2.0 | 5.0 | 0.00 | 0.00 | 0.00 | 33 | 1012.5 |
| 20260830184126 | 103 | 136 | 2.0 | 5.0 | 0.00 | 0.00 | 0.00 | 33 | 1012.5 |
| 20260830184047 | 103 | 136 | 1.0 | 5.0 | 0.00 | 0.00 | 0.00 | 33 | 1012.5 |
| 20260830183936 | 103 | 136 | 1.0 | 6.0 | 0.00 | 0.00 | 0.00 | 33 | 1012.5 |
| 20260830183842 | 103 | 136 | 2.0 | 6.0 | 0.00 | 0.00 | 0.00 | 33 | 1012.6 |
| 20260830183722 | 102 | 136 | 2.0 | 6.0 | 0.00 | 0.00 | 0.00 | 34 | 1012.6 |
| 20260830183633 | 102 | 136 | 2.0 | 6.0 | 0.00 | 0.00 | 0.00 | 33 | 1012.6 |
| 20260830183554 | 102 | 136 | 1.0 | 6.0 | 0.00 | 0.00 | 0.00 | 33 | 1012.7 |
| 20260830183415 | 102 | 136 | 1.0 | 6.0 | 0.00 | 0.00 | 0.00 | 33 | 1012.7 |
| 20260830183345 | 102 | 136 | 1.0 | 6.0 | 0.00 | 0.00 | 0.00 | 34 | 1012.7 |
| 20260830183226 | 102 | 136 | 1.0 | 6.0 | 0.00 | 0.00 | 0.00 | 34 | 1012.8 |
| 20260830183140 | 102 | 136 | 2.0 | 6.0 | 0.00 | 0.00 | 0.00 | 34 | 1012.8 |
| 20260830183019 | 102 | 136 | 2.0 | 6.0 | 0.00 | 0.00 | 0.00 | 34 | 1012.9 |
| 20260830182920 | 102 | 136 | 2.0 | 6.0 | 0.00 | 0.00 | 0.00 | 33 | 1012.8 |
| 20260830182830 | 102 | 136 | 3.0 | 6.0 | 0.00 | 0.00 | 0.00 | 33 | 1012.8 |
| 20260830182750 | 102 | 136 | 3.0 | 6.0 | 0.00 | 0.00 | 0.00 | 34 | 1012.9 |
| 20260830182617 | 102 | 135 | 3.0 | 6.0 | 0.00 | 0.00 | 0.00 | 34 | 1012.9 |
| 20260830182519 | 102 | 134 | 2.0 | 4.0 | 0.00 | 0.00 | 0.00 | 34 | 1012.9 |
| 20260830182433 | 102 | 134 | 1.0 | 4.0 | 0.00 | 0.00 | 0.00 | 33 | 1012.9 |
| 20260830182315 | 102 | 134 | 1.0 | 4.0 | 0.00 | 0.00 | 0.00 | 34 | 1012.9 |
| 20260830182216 | 102 | 134 | 2.0 | 4.0 | 0.00 | 0.00 | 0.00 | 33 | 1012.8 |
| 20260830182118 | 103 | 134 | 1.0 | 4.0 | 0.00 | 0.00 | 0.00 | 33 | 1012.9 |
| 20260830182028 | 102 | 134 | 1.0 | 3.0 | 0.00 | 0.00 | 0.00 | 33 | 1012.8 |
| 20260830181930 | 102 | 134 | 1.0 | 4.0 | 0.00 | 0.00 | 0.00 | 35 | 1012.8 |
| 20260830181816 | 102 | 134 | 1.0 | 4.0 | 0.00 | 0.00 | 0.00 | 33 | 1012.8 |
| 20260830181716 | 102 | 134 | 1.0 | 4.0 | 0.00 | 0.00 | 0.00 | 34 | 1012.9 |
| 20260830181626 | 101 | 134 | 0.0 | 4.0 | 0.00 | 0.00 | 0.00 | 37 | 1012.9 |
| 20260830181527 | 100 | 134 | 0.0 | 5.0 | 0.00 | 0.00 | 0.00 | 36 | 1012.9 |
| 20260830181436 | 100 | 134 | 0.0 | 6.0 | 0.00 | 0.00 | 0.00 | 35 | 1012.9 |
| 20260830181318 | 100 | 134 | 1.0 | 9.0 | 0.00 | 0.00 | 0.00 | 35 | 1012.9 |
| 20260830181244 | 100 | 134 | 2.0 | 9.0 | 0.00 | 0.00 | 0.00 | 35 | 1013.0 |
| 20260830181133 | 100 | 134 | 2.0 | 9.0 | 0.00 | 0.00 | 0.00 | 35 | 1013.0 |
| 20260830181015 | 100 | 134 | 1.0 | 9.0 | 0.00 | 0.00 | 0.00 | 35 | 1013.0 |
| 20260830180918 | 100 | 134 | 1.0 | 9.0 | 0.00 | 0.00 | 0.00 | 35 | 1013.0 |
| 20260830180820 | 101 | 134 | 2.0 | 9.0 | 0.00 | 0.00 | 0.00 | 34 | 1013.0 |
| 20260830180729 | 101 | 134 | 3.0 | 9.0 | 0.00 | 0.00 | 0.00 | 34 | 1013.0 |
| 20260830180636 | 101 | 134 | 3.0 | 9.0 | 0.00 | 0.00 | 0.00 | 35 | 1013.0 |
| 20260830180551 | 101 | 131 | 2.0 | 9.0 | 0.00 | 0.00 | 0.00 | 35 | 1013.0 |
| 20260830180422 | 100 | 129 | 1.0 | 4.0 | 0.00 | 0.00 | 0.00 | 35 | 1013.0 |
| 20260830180332 | 100 | 129 | 1.0 | 4.0 | 0.00 | 0.00 | 0.00 | 35 | 1013.0 |
| 20260830180255 | 100 | 129 | 1.0 | 4.0 | 0.00 | 0.00 | 0.00 | 35 | 1013.0 |
| 20260830180142 | 100 | 129 | 1.0 | 4.0 | 0.00 | 0.00 | 0.00 | 36 | 1013.1 |
| 20260830180044 | 100 | 129 | 1.0 | 4.0 | 0.00 | 0.00 | 0.00 | 36 | 1013.1 |
| 20260830175916 | 99 | 129 | 1.0 | 4.0 | 0.00 | 0.00 | 0.00 | 35 | 1013.1 |
| 20260830175830 | 99 | 129 | 1.0 | 4.0 | 0.00 | 0.00 | 0.00 | 35 | 1013.2 |
| 20260830175730 | 100 | 129 | 2.0 | 4.0 | 0.00 | 0.00 | 0.00 | 35 | 1013.2 |
| 20260830175619 | 100 | 128 | 1.0 | 4.0 | 0.00 | 0.00 | 0.00 | 35 | 1013.2 |
| 20260830175522 | 100 | 127 | 1.0 | 3.0 | 0.00 | 0.00 | 0.00 | 35 | 1013.2 |
| 20260830175423 | 100 | 127 | 0.0 | 3.0 | 0.00 | 0.00 | 0.00 | 35 | 1013.2 |
| 20260830175333 | 100 | 127 | 0.0 | 3.0 | 0.00 | 0.00 | 0.00 | 36 | 1013.2 |
| 20260830175220 | 100 | 127 | 0.0 | 3.0 | 0.00 | 0.00 | 0.00 | 37 | 1013.2 |
| 20260830175122 | 100 | 127 | 0.0 | 4.0 | 0.00 | 0.00 | 0.00 | 36 | 1013.3 |
| 20260830175023 | 99 | 127 | 0.0 | 4.0 | 0.00 | 0.00 | 0.00 | 36 | 1013.2 |
| 20260830174934 | 99 | 127 | 1.0 | 4.0 | 0.00 | 0.00 | 0.00 | 36 | 1013.2 |
| 20260830174816 | 99 | 128 | 2.0 | 4.0 | 0.00 | 0.00 | 0.00 | 36 | 1013.2 |
| 20260830174718 | 99 | 127 | 1.0 | 4.0 | 0.00 | 0.00 | 0.00 | 36 | 1013.2 |
| 20260830174622 | 99 | 127 | 1.0 | 6.0 | 0.00 | 0.00 | 0.00 | 36 | 1013.3 |
| 20260830174533 | 99 | 127 | 1.0 | 6.0 | 0.00 | 0.00 | 0.00 | 36 | 1013.3 |
| 20260830174455 | 99 | 127 | 1.0 | 6.0 | 0.00 | 0.00 | 0.00 | 36 | 1013.2 |
| 20260830174322 | 99 | 127 | 1.0 | 6.0 | 0.00 | 0.00 | 0.00 | 36 | 1013.2 |
| 20260830174224 | 99 | 127 | 0.0 | 6.0 | 0.00 | 0.00 | 0.00 | 36 | 1013.2 |
| 20260830174125 | 99 | 127 | 1.0 | 6.0 | 0.00 | 0.00 | 0.00 | 36 | 1013.3 |
| 20260830174055 | 98 | 127 | 1.0 | 6.0 | 0.00 | 0.00 | 0.00 | 37 | 1013.3 |
| 20260830173919 | 98 | 127 | 2.0 | 6.0 | 0.00 | 0.00 | 0.00 | 36 | 1013.5 |
| 20260830173828 | 99 | 127 | 2.0 | 6.0 | 0.00 | 0.00 | 0.00 | 36 | 1013.4 |
| 20260830173730 | 99 | 126 | 1.0 | 4.0 | 0.00 | 0.00 | 0.00 | 36 | 1013.5 |
| 20260830173633 | 99 | 126 | 2.0 | 6.0 | 0.00 | 0.00 | 0.00 | 36 | 1013.5 |
| 20260830173519 | 99 | 120 | 1.0 | 6.0 | 0.00 | 0.00 | 0.00 | 36 | 1013.4 |
| 20260830173422 | 99 | 116 | 1.0 | 6.0 | 0.00 | 0.00 | 0.00 | 36 | 1013.4 |
| 20260830173328 | 99 | 115 | 1.0 | 6.0 | 0.00 | 0.00 | 0.00 | 36 | 1013.4 |
| 20260830173238 | 99 | 115 | 1.0 | 6.0 | 0.00 | 0.00 | 0.00 | 36 | 1013.4 |
| 20260830173118 | 99 | 117 | 1.0 | 6.0 | 0.00 | 0.00 | 0.00 | 36 | 1013.4 |
| 20260830173022 | 99 | 116 | 1.0 | 6.0 | 0.00 | 0.00 | 0.00 | 36 | 1013.3 |
| 20260830172922 | 99 | 116 | 2.0 | 6.0 | 0.00 | 0.00 | 0.00 | 36 | 1013.3 |
| 20260830172832 | 99 | 128 | 1.0 | 6.0 | 0.00 | 0.00 | 0.00 | 36 | 1013.3 |
| 20260830172718 | 99 | 129 | 1.0 | 4.0 | 0.00 | 0.00 | 0.00 | 36 | 1013.1 |
| 20260830172641 | 99 | 129 | 1.0 | 4.0 | 0.00 | 0.00 | 0.00 | 36 | 1013.2 |
| 20260830172527 | 99 | 129 | 1.0 | 5.0 | 0.00 | 0.00 | 0.00 | 36 | 1013.3 |
| 20260830172429 | 99 | 129 | 0.0 | 5.0 | 0.00 | 0.00 | 0.00 | 37 | 1013.2 |
| 20260830172339 | 98 | 129 | 0.0 | 5.0 | 0.00 | 0.00 | 0.00 | 38 | 1013.2 |
| 20260830172242 | 98 | 129 | 0.0 | 5.0 | 0.00 | 0.00 | 0.00 | 37 | 1013.3 |
| 20260830172122 | 98 | 129 | 1.0 | 5.0 | 0.00 | 0.00 | 0.00 | 37 | 1013.3 |
| 20260830172035 | 98 | 129 | 1.0 | 5.0 | 0.00 | 0.00 | 0.00 | 37 | 1013.3 |
| 20260830171916 | 98 | 129 | 1.0 | 5.0 | 0.00 | 0.00 | 0.00 | 37 | 1013.4 |
| 20260830171845 | 97 | 129 | 1.0 | 5.0 | 0.00 | 0.00 | 0.00 | 38 | 1013.3 |
| 20260830171724 | 97 | 129 | 1.0 | 5.0 | 0.00 | 0.00 | 0.00 | 37 | 1013.4 |
| 20260830171634 | 97 | 128 | 1.0 | 5.0 | 0.00 | 0.00 | 0.00 | 37 | 1013.4 |
| 20260830171517 | 97 | 120 | 0.0 | 4.0 | 0.00 | 0.00 | 0.00 | 38 | 1013.4 |
| 20260830171419 | 97 | 120 | 1.0 | 4.0 | 0.00 | 0.00 | 0.00 | 38 | 1013.4 |
| 20260830171325 | 97 | 120 | 2.0 | 4.0 | 0.00 | 0.00 | 0.00 | 37 | 1013.4 |
| 20260830171233 | 98 | 120 | 1.0 | 5.0 | 0.00 | 0.00 | 0.00 | 37 | 1013.4 |
| 20260830171133 | 97 | 120 | 1.0 | 5.0 | 0.00 | 0.00 | 0.00 | 38 | 1013.4 |
| 20260830171040 | 97 | 120 | 1.0 | 5.0 | 0.00 | 0.00 | 0.00 | 38 | 1013.4 |
| 20260830170921 | 98 | 120 | 1.0 | 5.0 | 0.00 | 0.00 | 0.00 | 37 | 1013.4 |
| 20260830170828 | 98 | 120 | 1.0 | 5.0 | 0.00 | 0.00 | 0.00 | 37 | 1013.4 |
| 20260830170728 | 98 | 120 | 1.0 | 5.0 | 0.00 | 0.00 | 0.00 | 37 | 1013.4 |
| 20260830170617 | 98 | 120 | 1.0 | 5.0 | 0.00 | 0.00 | 0.00 | 37 | 1013.5 |
| 20260830170539 | 98 | 120 | 1.0 | 5.0 | 0.00 | 0.00 | 0.00 | 38 | 1013.5 |
| 20260830170509 | 97 | 120 | 1.0 | 5.0 | 0.00 | 0.00 | 0.00 | 39 | 1013.4 |
| 20260830170323 | 97 | 122 | 1.0 | 4.0 | 0.00 | 0.00 | 0.00 | 38 | 1013.5 |
| 20260830170233 | 96 | 122 | 1.0 | 4.0 | 0.00 | 0.00 | 0.00 | 38 | 1013.5 |
| 20260830170134 | 96 | 122 | 1.0 | 4.0 | 0.00 | 0.00 | 0.00 | 38 | 1013.4 |
| 20260830170045 | 96 | 122 | 1.0 | 4.0 | 0.00 | 0.00 | 0.00 | 39 | 1013.4 |
| 20260830165943 | 96 | 122 | 1.0 | 4.0 | 0.00 | 0.00 | 0.00 | 39 | 1013.5 |
| 20260830165828 | 96 | 122 | 1.0 | 4.0 | 0.00 | 0.00 | 0.00 | 39 | 1013.4 |
| 20260830165737 | 96 | 122 | 0.0 | 4.0 | 0.00 | 0.00 | 0.00 | 38 | 1013.4 |
| 20260830165620 | 96 | 122 | 1.0 | 4.0 | 0.00 | 0.00 | 0.00 | 38 | 1013.4 |
| 20260830165521 | 97 | 122 | 2.0 | 4.0 | 0.00 | 0.00 | 0.00 | 38 | 1013.5 |
| 20260830165422 | 97 | 121 | 1.0 | 3.0 | 0.00 | 0.00 | 0.00 | 38 | 1013.5 |
| 20260830165333 | 97 | 121 | 1.0 | 3.0 | 0.00 | 0.00 | 0.00 | 38 | 1013.5 |
| 20260830165217 | 97 | 121 | 1.0 | 4.0 | 0.00 | 0.00 | 0.00 | 37 | 1013.5 |
| 20260830165120 | 97 | 121 | 1.0 | 4.0 | 0.00 | 0.00 | 0.00 | 39 | 1013.6 |
| 20260830165048 | 96 | 121 | 1.0 | 4.0 | 0.00 | 0.00 | 0.00 | 39 | 1013.5 |
| 20260830164929 | 96 | 121 | 1.0 | 4.0 | 0.00 | 0.00 | 0.00 | 39 | 1013.5 |
| 20260830164830 | 96 | 121 | 0.0 | 4.0 | 0.00 | 0.00 | 0.00 | 40 | 1013.5 |
| 20260830164740 | 96 | 121 | 0.0 | 4.0 | 0.00 | 0.00 | 0.00 | 38 | 1013.5 |
| 20260830164625 | 96 | 121 | 1.0 | 4.0 | 0.00 | 0.00 | 0.00 | 38 | 1013.6 |
| 20260830164527 | 96 | 121 | 1.0 | 4.0 | 0.00 | 0.00 | 0.00 | 38 | 1013.7 |
| 20260830164427 | 96 | 121 | 1.0 | 4.0 | 0.00 | 0.00 | 0.00 | 38 | 1013.6 |
| 20260830164357 | 96 | 121 | 1.0 | 4.0 | 0.00 | 0.00 | 0.00 | 38 | 1013.6 |
| 20260830164228 | 96 | 117 | 1.0 | 4.0 | 0.00 | 0.00 | 0.00 | 38 | 1013.6 |
| 20260830164158 | 96 | 117 | 1.0 | 4.0 | 0.00 | 0.00 | 0.00 | 39 | 1013.6 |
| 20260830164019 | 96 | 117 | 1.0 | 4.0 | 0.00 | 0.00 | 0.00 | 38 | 1013.6 |
| 20260830163941 | 96 | 117 | 0.0 | 4.0 | 0.00 | 0.00 | 0.00 | 38 | 1013.6 |
| 20260830163834 | 96 | 117 | 0.0 | 4.0 | 0.00 | 0.00 | 0.00 | 38 | 1013.6 |
| 20260830163716 | 96 | 117 | 1.0 | 4.0 | 0.00 | 0.00 | 0.00 | 38 | 1013.5 |
| 20260830163619 | 96 | 117 | 1.0 | 4.0 | 0.00 | 0.00 | 0.00 | 38 | 1013.5 |
| 20260830163522 | 96 | 117 | 1.0 | 4.0 | 0.00 | 0.00 | 0.00 | 38 | 1013.5 |
| 20260830163450 | 96 | 117 | 1.0 | 4.0 | 0.00 | 0.00 | 0.00 | 38 | 1013.5 |
| 20260830163332 | 96 | 117 | 1.0 | 3.0 | 0.00 | 0.00 | 0.00 | 38 | 1013.5 |
| 20260830163218 | 96 | 117 | 1.0 | 3.0 | 0.00 | 0.00 | 0.00 | 39 | 1013.4 |
| 20260830163127 | 96 | 117 | 2.0 | 3.0 | 0.00 | 0.00 | 0.00 | 38 | 1013.4 |
| 20260830163030 | 96 | 118 | 1.0 | 4.0 | 0.00 | 0.00 | 0.00 | 38 | 1013.4 |
| 20260830163001 | 96 | 122 | 1.0 | 4.0 | 0.00 | 0.00 | 0.00 | 38 | 1013.4 |
| 20260830162822 | 96 | 122 | 1.0 | 4.0 | 0.00 | 0.00 | 0.00 | 39 | 1013.3 |
| 20260830162724 | 96 | 122 | 1.0 | 4.0 | 0.00 | 0.00 | 0.00 | 39 | 1013.2 |
| 20260830162638 | 96 | 122 | 1.0 | 4.0 | 0.00 | 0.00 | 0.00 | 39 | 1013.2 |
| 20260830162521 | 95 | 122 | 1.0 | 5.0 | 0.00 | 0.00 | 0.00 | 39 | 1013.2 |
| 20260830162422 | 95 | 122 | 1.0 | 5.0 | 0.00 | 0.00 | 0.00 | 39 | 1013.3 |
| 20260830162353 | 95 | 122 | 1.0 | 5.0 | 0.00 | 0.00 | 0.00 | 39 | 1013.3 |
| 20260830162233 | 95 | 122 | 1.0 | 5.0 | 0.00 | 0.00 | 0.00 | 39 | 1013.3 |
| 20260830162135 | 95 | 122 | 1.0 | 5.0 | 0.00 | 0.00 | 0.00 | 39 | 1013.3 |
| 20260830162021 | 95 | 122 | 0.0 | 5.0 | 0.00 | 0.00 | 0.00 | 40 | 1013.3 |
| 20260830161930 | 95 | 122 | 1.0 | 5.0 | 0.00 | 0.00 | 0.00 | 39 | 1013.4 |
| 20260830161833 | 95 | 122 | 1.0 | 5.0 | 0.00 | 0.00 | 0.00 | 39 | 1013.4 |
| 20260830161735 | 95 | 122 | 2.0 | 5.0 | 0.00 | 0.00 | 0.00 | 39 | 1013.4 |
| 20260830161617 | 95 | 122 | 1.0 | 5.0 | 0.00 | 0.00 | 0.00 | 40 | 1013.3 |
| 20260830161524 | 95 | 122 | 1.0 | 5.0 | 0.00 | 0.00 | 0.00 | 40 | 1013.4 |
| 20260830161426 | 95 | 122 | 2.0 | 5.0 | 0.00 | 0.00 | 0.00 | 40 | 1013.3 |
| 20260830161341 | 95 | 122 | 2.0 | 5.0 | 0.00 | 0.00 | 0.00 | 40 | 1013.3 |
| 20260830161243 | 95 | 121 | 2.0 | 5.0 | 0.00 | 0.00 | 0.00 | 40 | 1013.4 |
| 20260830161129 | 95 | 121 | 1.0 | 5.0 | 0.00 | 0.00 | 0.00 | 39 | 1013.4 |
| 20260830161033 | 95 | 121 | 1.0 | 3.0 | 0.00 | 0.00 | 0.00 | 40 | 1013.4 |
| 20260830160942 | 95 | 121 | 0.0 | 3.0 | 0.00 | 0.00 | 0.00 | 40 | 1013.4 |
| 20260830160843 | 94 | 121 | 1.0 | 3.0 | 0.00 | 0.00 | 0.00 | 40 | 1013.4 |
| 20260830160744 | 94 | 121 | 1.0 | 4.0 | 0.00 | 0.00 | 0.00 | 40 | 1013.4 |
| 20260830160636 | 94 | 121 | 1.0 | 4.0 | 0.00 | 0.00 | 0.00 | 40 | 1013.4 |
| 20260830160516 | 94 | 121 | 1.0 | 5.0 | 0.00 | 0.00 | 0.00 | 40 | 1013.5 |
| 20260830160417 | 94 | 119 | 1.0 | 5.0 | 0.00 | 0.00 | 0.00 | 40 | 1013.5 |
| 20260830160347 | 94 | 119 | 1.0 | 5.0 | 0.00 | 0.00 | 0.00 | 40 | 1013.5 |
| 20260830160304 | 94 | 119 | 1.0 | 5.0 | 0.00 | 0.00 | 0.00 | 40 | 1013.5 |
| 20260830160140 | 94 | 119 | 1.0 | 5.0 | 0.00 | 0.00 | 0.00 | 40 | 1013.5 |
| 20260830160038 | 94 | 119 | 1.0 | 5.0 | 0.00 | 0.00 | 0.00 | 40 | 1013.5 |
| 20260830155927 | 94 | 118 | 1.0 | 5.0 | 0.00 | 0.00 | 0.00 | 40 | 1013.6 |
| 20260830155837 | 94 | 115 | 1.0 | 5.0 | 0.00 | 0.00 | 0.00 | 40 | 1013.6 |
| 20260830155720 | 94 | 115 | 2.0 | 6.0 | 0.00 | 0.00 | 0.00 | 40 | 1013.6 |
| 20260830155619 | 94 | 117 | 2.0 | 6.0 | 0.00 | 0.00 | 0.00 | 40 | 1013.7 |
| 20260830155521 | 94 | 117 | 1.0 | 6.0 | 0.00 | 0.00 | 0.00 | 40 | 1013.5 |
| 20260830155426 | 94 | 115 | 1.0 | 6.0 | 0.00 | 0.00 | 0.00 | 40 | 1013.5 |
| 20260830155333 | 93 | 115 | 1.0 | 6.0 | 0.00 | 0.00 | 0.00 | 40 | 1013.5 |
| 20260830155241 | 93 | 117 | 1.0 | 6.0 | 0.00 | 0.00 | 0.00 | 40 | 1013.5 |
| 20260830155123 | 93 | 113 | 2.0 | 6.0 | 0.00 | 0.00 | 0.00 | 40 | 1013.5 |
| 20260830155025 | 93 | 113 | 2.0 | 6.0 | 0.00 | 0.00 | 0.00 | 40 | 1013.5 |
| 20260830154925 | 94 | 106 | 2.0 | 6.0 | 0.00 | 0.00 | 0.00 | 40 | 1013.4 |
| 20260830154834 | 94 | 105 | 1.0 | 6.0 | 0.00 | 0.00 | 0.00 | 40 | 1013.4 |
| 20260830154718 | 94 | 104 | 1.0 | 6.0 | 0.00 | 0.00 | 0.00 | 40 | 1013.4 |
| 20260830154647 | 93 | 103 | 1.0 | 4.0 | 0.00 | 0.00 | 0.00 | 41 | 1013.4 |
| 20260830154527 | 93 | 103 | 1.0 | 4.0 | 0.00 | 0.00 | 0.00 | 41 | 1013.4 |
| 20260830154458 | 93 | 104 | 1.0 | 4.0 | 0.00 | 0.00 | 0.00 | 41 | 1013.4 |
| 20260830154337 | 93 | 114 | 1.0 | 4.0 | 0.00 | 0.00 | 0.00 | 41 | 1013.3 |
| 20260830154245 | 93 | 114 | 1.0 | 4.0 | 0.00 | 0.00 | 0.00 | 41 | 1013.4 |
| 20260830154155 | 93 | 114 | 1.0 | 4.0 | 0.00 | 0.00 | 0.00 | 41 | 1013.4 |
| 20260830154016 | 93 | 114 | 2.0 | 4.0 | 0.00 | 0.00 | 0.00 | 41 | 1013.4 |
| 20260830153922 | 93 | 112 | 2.0 | 4.0 | 0.00 | 0.00 | 0.00 | 41 | 1013.4 |
| 20260830153822 | 93 | 109 | 1.0 | 4.0 | 0.00 | 0.00 | 0.00 | 41 | 1013.4 |
| 20260830153732 | 93 | 109 | 1.0 | 4.0 | 0.00 | 0.00 | 0.00 | 41 | 1013.4 |
| 20260830153632 | 93 | 103 | 1.0 | 4.0 | 0.00 | 0.00 | 0.00 | 41 | 1013.4 |
| 20260830153532 | 93 | 103 | 1.0 | 4.0 | 0.00 | 0.00 | 0.00 | 42 | 1013.4 |
| 20260830153440 | 93 | 103 | 1.0 | 4.0 | 0.00 | 0.00 | 0.00 | 41 | 1013.3 |
| 20260830153327 | 93 | 103 | 1.0 | 4.0 | 0.00 | 0.00 | 0.00 | 41 | 1013.4 |
| 20260830153229 | 93 | 103 | 1.0 | 4.0 | 0.00 | 0.00 | 0.00 | 42 | 1013.4 |
| 20260830153129 | 92 | 104 | 1.0 | 4.0 | 0.00 | 0.00 | 0.00 | 41 | 1013.4 |
| 20260830153039 | 93 | 103 | 1.0 | 4.0 | 0.00 | 0.00 | 0.00 | 41 | 1013.4 |
| 20260830152922 | 93 | 86 | 1.0 | 4.0 | 0.00 | 0.00 | 0.00 | 41 | 1013.5 |
| 20260830152824 | 92 | 84 | 1.0 | 4.0 | 0.00 | 0.00 | 0.00 | 41 | 1013.5 |
| 20260830152729 | 92 | 83 | 2.0 | 4.0 | 0.00 | 0.00 | 0.00 | 42 | 1013.5 |
| 20260830152639 | 92 | 94 | 2.0 | 5.0 | 0.00 | 0.00 | 0.00 | 41 | 1013.5 |
| 20260830152522 | 92 | 122 | 2.0 | 5.0 | 0.00 | 0.00 | 0.00 | 41 | 1013.4 |
| 20260830152424 | 92 | 99 | 1.0 | 5.0 | 0.00 | 0.00 | 0.00 | 41 | 1013.5 |
| 20260830152355 | 92 | 87 | 1.0 | 5.0 | 0.00 | 0.00 | 0.00 | 42 | 1013.5 |
| 20260830152216 | 92 | 86 | 1.0 | 6.0 | 0.00 | 0.00 | 0.00 | 42 | 1013.4 |
| 20260830152122 | 92 | 86 | 1.0 | 6.0 | 0.00 | 0.00 | 0.00 | 41 | 1013.4 |
| 20260830152033 | 92 | 86 | 1.0 | 6.0 | 0.00 | 0.00 | 0.00 | 42 | 1013.4 |
| 20260830151955 | 92 | 85 | 1.0 | 6.0 | 0.00 | 0.00 | 0.00 | 42 | 1013.4 |
| 20260830151817 | 92 | 89 | 2.0 | 6.0 | 0.00 | 0.00 | 0.00 | 43 | 1013.3 |
| 20260830151725 | 91 | 123 | 2.0 | 6.0 | 0.00 | 0.00 | 0.00 | 43 | 1013.4 |
| 20260830151627 | 91 | 127 | 2.0 | 6.0 | 0.00 | 0.00 | 0.00 | 42 | 1013.4 |
| 20260830151534 | 91 | 124 | 2.0 | 6.0 | 0.00 | 0.00 | 0.00 | 42 | 1013.4 |
| 20260830151417 | 91 | 124 | 2.0 | 6.0 | 0.00 | 0.00 | 0.00 | 42 | 1013.4 |
| 20260830151345 | 91 | 121 | 2.0 | 6.0 | 0.00 | 0.00 | 0.00 | 42 | 1013.4 |
| 20260830151227 | 91 | 121 | 2.0 | 5.0 | 0.00 | 0.00 | 0.00 | 42 | 1013.5 |
| 20260830151136 | 91 | 122 | 1.0 | 5.0 | 0.00 | 0.00 | 0.00 | 42 | 1013.4 |
| 20260830151018 | 91 | 119 | 1.0 | 5.0 | 0.00 | 0.00 | 0.00 | 43 | 1013.4 |
| 20260830150919 | 91 | 118 | 2.0 | 6.0 | 0.00 | 0.00 | 0.00 | 43 | 1013.4 |
| 20260830150834 | 91 | 117 | 2.0 | 6.0 | 0.00 | 0.00 | 0.00 | 43 | 1013.4 |
| 20260830150735 | 91 | 119 | 2.0 | 6.0 | 0.00 | 0.00 | 0.00 | 43 | 1013.3 |
| 20260830150614 | 91 | 120 | 2.0 | 6.0 | 0.00 | 0.00 | 0.00 | 43 | 1013.3 |
| 20260830150543 | 91 | 117 | 2.0 | 6.0 | 0.00 | 0.00 | 0.00 | 43 | 1013.3 |
| 20260830150422 | 91 | 115 | 2.0 | 7.0 | 0.00 | 0.00 | 0.00 | 43 | 1013.4 |
| 20260830150333 | 91 | 115 | 2.0 | 7.0 | 0.00 | 0.00 | 0.00 | 43 | 1013.4 |
| 20260830150238 | 91 | 115 | 2.0 | 7.0 | 0.00 | 0.00 | 0.00 | 43 | 1013.3 |
| 20260830150207 | 91 | 115 | 2.0 | 7.0 | 0.00 | 0.00 | 0.00 | 43 | 1013.4 |
| 20260830145940 | 90 | 110 | 1.0 | 7.0 | 0.00 | 0.00 | 0.00 | 44 | 1013.5 |
| 20260830145823 | 90 | 110 | 1.0 | 7.0 | 0.00 | 0.00 | 0.00 | 44 | 1013.6 |
| 20260830145726 | 90 | 110 | 2.0 | 7.0 | 0.00 | 0.00 | 0.00 | 44 | 1013.6 |
| 20260830145654 | 90 | 119 | 2.0 | 5.0 | 0.00 | 0.00 | 0.00 | 44 | 1013.6 |
| 20260830145422 | 90 | 122 | 2.0 | 5.0 | 0.00 | 0.00 | 0.00 | 45 | 1013.7 |
| 20260830145325 | 90 | 120 | 1.0 | 5.0 | 0.00 | 0.00 | 0.00 | 45 | 1013.6 |
| 20260830145228 | 90 | 120 | 1.0 | 5.0 | 0.00 | 0.00 | 0.00 | 45 | 1013.5 |
| 20260830145137 | 90 | 120 | 1.0 | 5.0 | 0.00 | 0.00 | 0.00 | 45 | 1013.6 |
| 20260830145018 | 90 | 122 | 1.0 | 5.0 | 0.00 | 0.00 | 0.00 | 45 | 1013.5 |
| 20260830144932 | 90 | 122 | 2.0 | 5.0 | 0.00 | 0.00 | 0.00 | 45 | 1013.5 |
| 20260830144833 | 90 | 122 | 2.0 | 5.0 | 0.00 | 0.00 | 0.00 | 45 | 1013.4 |
| 20260830144715 | 90 | 120 | 1.0 | 4.0 | 0.00 | 0.00 | 0.00 | 45 | 1013.5 |
| 20260830144618 | 90 | 122 | 1.0 | 4.0 | 0.00 | 0.00 | 0.00 | 45 | 1013.4 |
| 20260830144548 | 90 | 115 | 1.0 | 4.0 | 0.00 | 0.00 | 0.00 | 45 | 1013.4 |
| 20260830144430 | 90 | 114 | 1.0 | 4.0 | 0.00 | 0.00 | 0.00 | 45 | 1013.4 |
| 20260830144316 | 90 | 104 | 1.0 | 4.0 | 0.00 | 0.00 | 0.00 | 45 | 1013.5 |
| 20260830144245 | 90 | 103 | 1.0 | 4.0 | 0.00 | 0.00 | 0.00 | 45 | 1013.5 |
| 20260830144154 | 90 | 93 | 1.0 | 2.0 | 0.00 | 0.00 | 0.00 | 45 | 1013.5 |
| 20260830144035 | 90 | 93 | 0.0 | 2.0 | 0.00 | 0.00 | 0.00 | 45 | 1013.5 |
| 20260830143916 | 90 | 94 | 1.0 | 2.0 | 0.00 | 0.00 | 0.00 | 45 | 1013.6 |
| 20260830143818 | 90 | 94 | 1.0 | 2.0 | 0.00 | 0.00 | 0.00 | 45 | 1013.6 |
| 20260830143727 | 90 | 94 | 1.0 | 2.0 | 0.00 | 0.00 | 0.00 | 45 | 1013.6 |
| 20260830143634 | 90 | 360 | 1.0 | 2.0 | 0.00 | 0.00 | 0.00 | 45 | 1013.6 |
| 20260830143516 | 90 | 90 | 1.0 | 3.0 | 0.00 | 0.00 | 0.00 | 45 | 1013.6 |
| 20260830143418 | 89 | 91 | 1.0 | 4.0 | 0.00 | 0.00 | 0.00 | 45 | 1013.6 |
| 20260830143327 | 89 | 360 | 1.0 | 5.0 | 0.00 | 0.00 | 0.00 | 45 | 1013.5 |
| 20260830143258 | 89 | 83 | 1.0 | 5.0 | 0.00 | 0.00 | 0.00 | 46 | 1013.5 |
| 20260830143118 | 89 | 77 | 0.0 | 5.0 | 0.00 | 0.00 | 0.00 | 46 | 1013.4 |
| 20260830143024 | 89 | 77 | 1.0 | 5.0 | 0.00 | 0.00 | 0.00 | 46 | 1013.5 |
| 20260830142925 | 89 | 77 | 1.0 | 5.0 | 0.00 | 0.00 | 0.00 | 46 | 1013.4 |
| 20260830142835 | 89 | 77 | 1.0 | 5.0 | 0.00 | 0.00 | 0.00 | 46 | 1013.4 |
| 20260830142716 | 89 | 77 | 1.0 | 5.0 | 0.00 | 0.00 | 0.00 | 46 | 1013.4 |
| 20260830142618 | 89 | 75 | 2.0 | 5.0 | 0.00 | 0.00 | 0.00 | 46 | 1013.5 |
| 20260830142520 | 89 | 79 | 2.0 | 5.0 | 0.00 | 0.00 | 0.00 | 46 | 1013.5 |
| 20260830142435 | 88 | 81 | 2.0 | 4.0 | 0.00 | 0.00 | 0.00 | 47 | 1013.5 |
| 20260830142338 | 88 | 219 | 1.0 | 3.0 | 0.00 | 0.00 | 0.00 | 47 | 1013.4 |
| 20260830142219 | 88 | 228 | 0.0 | 2.0 | 0.00 | 0.00 | 0.00 | 47 | 1013.5 |
| 20260830142149 | 88 | 230 | 0.0 | 2.0 | 0.00 | 0.00 | 0.00 | 47 | 1013.5 |
| 20260830142028 | 88 | 230 | 0.0 | 2.0 | 0.00 | 0.00 | 0.00 | 47 | 1013.5 |
| 20260830141938 | 88 | 231 | 0.0 | 2.0 | 0.00 | 0.00 | 0.00 | 48 | 1013.5 |
| 20260830141818 | 88 | 231 | 0.0 | 2.0 | 0.00 | 0.00 | 0.00 | 48 | 1013.3 |
| 20260830141723 | 88 | 231 | 0.0 | 2.0 | 0.00 | 0.00 | 0.00 | 48 | 1013.3 |
| 20260830141633 | 88 | 231 | 0.0 | 2.0 | 0.00 | 0.00 | 0.00 | 48 | 1013.3 |
| 20260830141515 | 88 | 231 | 0.0 | 2.0 | 0.00 | 0.00 | 0.00 | 48 | 1013.3 |
| 20260830141418 | 87 | 231 | 0.0 | 3.0 | 0.00 | 0.00 | 0.00 | 49 | 1013.3 |
| 20260830141320 | 87 | 231 | 1.0 | 3.0 | 0.00 | 0.00 | 0.00 | 49 | 1013.4 |
| 20260830141229 | 87 | 231 | 0.0 | 3.0 | 0.00 | 0.00 | 0.00 | 49 | 1013.3 |
| 20260830141135 | 87 | 360 | 1.0 | 3.0 | 0.00 | 0.00 | 0.00 | 49 | 1013.3 |
| 20260830141044 | 87 | 360 | 1.0 | 3.0 | 0.00 | 0.00 | 0.00 | 50 | 1013.4 |
| 20260830140926 | 87 | 231 | 1.0 | 3.0 | 0.00 | 0.00 | 0.00 | 50 | 1013.4 |
| 20260830140829 | 87 | 360 | 1.0 | 3.0 | 0.00 | 0.00 | 0.00 | 50 | 1013.4 |
| 20260830140738 | 87 | 360 | 1.0 | 3.0 | 0.00 | 0.00 | 0.00 | 50 | 1013.4 |
| 20260830140619 | 87 | 360 | 1.0 | 3.0 | 0.00 | 0.00 | 0.00 | 50 | 1013.3 |
| 20260830140525 | 87 | 360 | 1.0 | 3.0 | 0.00 | 0.00 | 0.00 | 50 | 1013.3 |
| 20260830140453 | 87 | 360 | 1.0 | 3.0 | 0.00 | 0.00 | 0.00 | 50 | 1013.3 |
| 20260830140333 | 87 | 360 | 0.0 | 3.0 | 0.00 | 0.00 | 0.00 | 50 | 1013.3 |
| 20260830140238 | 87 | 360 | 0.0 | 3.0 | 0.00 | 0.00 | 0.00 | 50 | 1013.2 |
| 20260830140119 | 87 | 360 | 1.0 | 3.0 | 0.00 | 0.00 | 0.00 | 50 | 1013.3 |
| 20260830140039 | 87 | 360 | 1.0 | 3.0 | 0.00 | 0.00 | 0.00 | 50 | 1013.3 |
| 20260830135817 | 87 | 360 | 1.0 | 3.0 | 0.00 | 0.00 | 0.00 | 50 | 1013.3 |
| 20260830135720 | 87 | 360 | 1.0 | 3.0 | 0.00 | 0.00 | 0.00 | 50 | 1013.3 |
| 20260830135629 | 87 | 360 | 1.0 | 3.0 | 0.00 | 0.00 | 0.00 | 50 | 1013.2 |
| 20260830135553 | 87 | 360 | 1.0 | 3.0 | 0.00 | 0.00 | 0.00 | 50 | 1013.2 |
| 20260830135440 | 87 | 360 | 1.0 | 3.0 | 0.00 | 0.00 | 0.00 | 50 | 1013.2 |
| 20260830135321 | 87 | 360 | 1.0 | 3.0 | 0.00 | 0.00 | 0.00 | 50 | 1013.2 |
| 20260830135227 | 87 | 360 | 1.0 | 3.0 | 0.00 | 0.00 | 0.00 | 50 | 1013.2 |
| 20260830135157 | 87 | 360 | 1.0 | 3.0 | 0.00 | 0.00 | 0.00 | 49 | 1013.2 |
| 20260830135018 | 87 | 360 | 2.0 | 3.0 | 0.00 | 0.00 | 0.00 | 49 | 1013.1 |
| 20260830134920 | 87 | 360 | 1.0 | 3.0 | 0.00 | 0.00 | 0.00 | 49 | 1013.1 |
| 20260830134822 | 87 | 360 | 1.0 | 2.0 | 0.00 | 0.00 | 0.00 | 50 | 1013.0 |
| 20260830134732 | 87 | 360 | 1.0 | 2.0 | 0.00 | 0.00 | 0.00 | 50 | 1013.0 |
| 20260830134617 | 87 | 360 | 0.0 | 3.0 | 0.00 | 0.00 | 0.00 | 50 | 1013.0 |
| 20260830134520 | 86 | 360 | 0.0 | 3.0 | 0.00 | 0.00 | 0.00 | 50 | 1013.0 |
| 20260830134422 | 86 | 360 | 0.0 | 3.0 | 0.00 | 0.00 | 0.00 | 50 | 1013.0 |
| 20260830134330 | 86 | 360 | 1.0 | 3.0 | 0.00 | 0.00 | 0.00 | 50 | 1013.0 |
| 20260830134232 | 86 | 360 | 0.0 | 3.0 | 0.00 | 0.00 | 0.00 | 50 | 1013.0 |
| 20260830134132 | 86 | 360 | 0.0 | 3.0 | 0.00 | 0.00 | 0.00 | 50 | 1013.0 |
| 20260830134018 | 86 | 360 | 1.0 | 3.0 | 0.00 | 0.00 | 0.00 | 50 | 1013.0 |
| 20260830133923 | 86 | 360 | 1.0 | 3.0 | 0.00 | 0.00 | 0.00 | 50 | 1012.9 |
| 20260830133833 | 86 | 360 | 1.0 | 3.0 | 0.00 | 0.00 | 0.00 | 50 | 1012.9 |
| 20260830133733 | 86 | 360 | 0.0 | 3.0 | 0.00 | 0.00 | 0.00 | 51 | 1012.9 |
| 20260830133642 | 86 | 360 | 0.0 | 3.0 | 0.00 | 0.00 | 0.00 | 50 | 1012.9 |
| 20260830133524 | 86 | 360 | 0.0 | 3.0 | 0.00 | 0.00 | 0.00 | 51 | 1012.9 |
| 20260830133425 | 86 | 360 | 1.0 | 3.0 | 0.00 | 0.00 | 0.00 | 50 | 1012.9 |
| 20260830133333 | 86 | 360 | 1.0 | 4.0 | 0.00 | 0.00 | 0.00 | 50 | 1012.9 |
| 20260830133218 | 86 | 360 | 0.0 | 4.0 | 0.00 | 0.00 | 0.00 | 51 | 1012.9 |
| 20260830133140 | 86 | 360 | 0.0 | 4.0 | 0.00 | 0.00 | 0.00 | 50 | 1012.9 |
| 20260830133027 | 86 | 360 | 1.0 | 5.0 | 0.00 | 0.00 | 0.00 | 50 | 1012.9 |
| 20260830132928 | 86 | 360 | 1.0 | 5.0 | 0.00 | 0.00 | 0.00 | 50 | 1013.0 |
| 20260830132837 | 86 | 360 | 0.0 | 5.0 | 0.00 | 0.00 | 0.00 | 50 | 1013.0 |
| 20260830132719 | 87 | 360 | 1.0 | 5.0 | 0.00 | 0.00 | 0.00 | 50 | 1012.8 |
| 20260830132641 | 87 | 360 | 2.0 | 5.0 | 0.00 | 0.00 | 0.00 | 50 | 1012.8 |
| 20260830132533 | 87 | 360 | 2.0 | 5.0 | 0.00 | 0.00 | 0.00 | 50 | 1012.8 |
| 20260830132415 | 87 | 360 | 2.0 | 5.0 | 0.00 | 0.00 | 0.00 | 49 | 1012.8 |
| 20260830132344 | 87 | 360 | 2.0 | 5.0 | 0.00 | 0.00 | 0.00 | 49 | 1012.8 |
| 20260830132253 | 87 | 360 | 2.0 | 5.0 | 0.00 | 0.00 | 0.00 | 49 | 1012.8 |
| 20260830132132 | 87 | 360 | 1.0 | 3.0 | 0.00 | 0.00 | 0.00 | 49 | 1012.8 |
| 20260830132015 | 87 | 360 | 0.0 | 3.0 | 0.00 | 0.00 | 0.00 | 49 | 1012.8 |
| 20260830131917 | 87 | 360 | 0.0 | 3.0 | 0.00 | 0.00 | 0.00 | 49 | 1012.8 |
| 20260830131832 | 87 | 360 | 0.0 | 3.0 | 0.00 | 0.00 | 0.00 | 49 | 1012.8 |
| 20260830131731 | 87 | 360 | 0.0 | 3.0 | 0.00 | 0.00 | 0.00 | 49 | 1012.8 |
| 20260830131640 | 87 | 360 | 1.0 | 3.0 | 0.00 | 0.00 | 0.00 | 49 | 1012.7 |
| 20260830131522 | 87 | 360 | 1.0 | 3.0 | 0.00 | 0.00 | 0.00 | 50 | 1012.8 |
| 20260830131423 | 87 | 360 | 1.0 | 3.0 | 0.00 | 0.00 | 0.00 | 50 | 1012.7 |
| 20260830131334 | 87 | 360 | 0.0 | 3.0 | 0.00 | 0.00 | 0.00 | 50 | 1012.7 |
| 20260830131220 | 87 | 360 | 1.0 | 3.0 | 0.00 | 0.00 | 0.00 | 50 | 1012.7 |
| 20260830131122 | 87 | 360 | 1.0 | 3.0 | 0.00 | 0.00 | 0.00 | 50 | 1012.7 |
| 20260830131033 | 87 | 360 | 1.0 | 3.0 | 0.00 | 0.00 | 0.00 | 51 | 1012.7 |
| 20260830130916 | 87 | 360 | 0.0 | 0.0 | 0.00 | 0.00 | 0.00 | 51 | 1012.5 |
| 20260830130817 | 87 | 360 | 0.0 | 0.0 | 0.00 | 0.00 | 0.00 | 51 | 1012.4 |
| 20260830130719 | 87 | 360 | 0.0 | 0.0 | 0.00 | 0.00 | 0.00 | 50 | 1012.4 |
| 20260830130633 | 87 | 360 | 0.0 | 0.0 | 0.00 | 0.00 | 0.00 | 50 | 1012.4 |
| 20260830130533 | 87 | 360 | 0.0 | 0.0 | 0.00 | 0.00 | 0.00 | 50 | 1012.4 |
| 20260830130433 | 87 | 360 | 0.0 | 0.0 | 0.00 | 0.00 | 0.00 | 50 | 1012.4 |
| 20260830130320 | 87 | 360 | 0.0 | 0.0 | 0.00 | 0.00 | 0.00 | 50 | 1012.4 |
| 20260830130242 | 87 | 360 | 0.0 | 0.0 | 0.00 | 0.00 | 0.00 | 50 | 1012.4 |
| 20260830130131 | 87 | 360 | 0.0 | 0.0 | 0.00 | 0.00 | 0.00 | 50 | 1012.4 |
| 20260830130043 | 87 | 360 | 0.0 | 0.0 | 0.00 | 0.00 | 0.00 | 50 | 1012.4 |
| 20260830125945 | 87 | 360 | 0.0 | 0.0 | 0.00 | 0.00 | 0.00 | 50 | 1012.3 |
| 20260830125819 | 87 | 360 | 0.0 | 0.0 | 0.00 | 0.00 | 0.00 | 50 | 1012.2 |
| 20260830125722 | 87 | 360 | 0.0 | 0.0 | 0.00 | 0.00 | 0.00 | 50 | 1012.3 |
| 20260830125622 | 86 | 360 | 0.0 | 0.0 | 0.00 | 0.00 | 0.00 | 50 | 1012.2 |
| 20260830125533 | 86 | 360 | 0.0 | 0.0 | 0.00 | 0.00 | 0.00 | 50 | 1012.2 |
| 20260830125435 | 86 | 360 | 0.0 | 1.0 | 0.00 | 0.00 | 0.00 | 50 | 1012.2 |
| 20260830125321 | 86 | 360 | 0.0 | 1.0 | 0.00 | 0.00 | 0.00 | 50 | 1012.1 |
| 20260830125223 | 86 | 360 | 0.0 | 1.0 | 0.00 | 0.00 | 0.00 | 50 | 1012.2 |
| 20260830125153 | 86 | 360 | 0.0 | 1.0 | 0.00 | 0.00 | 0.00 | 50 | 1012.2 |
| 20260830125039 | 86 | 360 | 0.0 | 1.0 | 0.00 | 0.00 | 0.00 | 50 | 1012.2 |
| 20260830124921 | 86 | 360 | 0.0 | 1.0 | 0.00 | 0.00 | 0.00 | 50 | 1012.2 |
| 20260830124823 | 86 | 360 | 0.0 | 1.0 | 0.00 | 0.00 | 0.00 | 50 | 1012.1 |
| 20260830124754 | 86 | 360 | 0.0 | 1.0 | 0.00 | 0.00 | 0.00 | 50 | 1012.1 |
| 20260830124616 | 86 | 360 | 0.0 | 1.0 | 0.00 | 0.00 | 0.00 | 50 | 1012.0 |
| 20260830124547 | 86 | 360 | 0.0 | 0.0 | 0.00 | 0.00 | 0.00 | 50 | 1012.1 |
| 20260830124428 | 86 | 360 | 0.0 | 0.0 | 0.00 | 0.00 | 0.00 | 50 | 1012.1 |
| 20260830124329 | 86 | 360 | 0.0 | 0.0 | 0.00 | 0.00 | 0.00 | 50 | 1012.1 |
| 20260830124238 | 86 | 360 | 0.0 | 0.0 | 0.00 | 0.00 | 0.00 | 50 | 1012.1 |
| 20260830124120 | 86 | 360 | 0.0 | 1.0 | 0.00 | 0.00 | 0.00 | 50 | 1012.0 |
| 20260830124022 | 86 | 360 | 0.0 | 1.0 | 0.00 | 0.00 | 0.00 | 50 | 1012.1 |
| 20260830123936 | 86 | 360 | 0.0 | 2.0 | 0.00 | 0.00 | 0.00 | 50 | 1012.1 |
| 20260830123819 | 86 | 360 | 0.0 | 2.0 | 0.00 | 0.00 | 0.00 | 50 | 1012.0 |
| 20260830123722 | 86 | 360 | 0.0 | 2.0 | 0.00 | 0.00 | 0.00 | 50 | 1011.9 |
| 20260830123624 | 86 | 360 | 0.0 | 2.0 | 0.00 | 0.00 | 0.00 | 50 | 1011.9 |
| 20260830123535 | 86 | 360 | 0.0 | 2.0 | 0.00 | 0.00 | 0.00 | 50 | 1011.9 |
| 20260830123422 | 86 | 360 | 0.0 | 2.0 | 0.00 | 0.00 | 0.00 | 51 | 1011.9 |
| 20260830123322 | 86 | 360 | 0.0 | 2.0 | 0.00 | 0.00 | 0.00 | 51 | 1011.9 |
| 20260830123253 | 86 | 360 | 1.0 | 2.0 | 0.00 | 0.00 | 0.00 | 50 | 1011.9 |
| 20260830123134 | 86 | 360 | 1.0 | 2.0 | 0.00 | 0.00 | 0.00 | 50 | 1011.8 |
| 20260830123016 | 86 | 360 | 0.0 | 1.0 | 0.00 | 0.00 | 0.00 | 50 | 1011.7 |
| 20260830122918 | 86 | 360 | 0.0 | 1.0 | 0.00 | 0.00 | 0.00 | 50 | 1011.8 |
| 20260830122848 | 86 | 360 | 0.0 | 0.0 | 0.00 | 0.00 | 0.00 | 50 | 1011.8 |
| 20260830122733 | 86 | 360 | 0.0 | 0.0 | 0.00 | 0.00 | 0.00 | 50 | 1011.8 |
| 20260830122621 | 86 | 360 | 0.0 | 0.0 | 0.00 | 0.00 | 0.00 | 50 | 1011.8 |
| 20260830122529 | 86 | 360 | 0.0 | 0.0 | 0.00 | 0.00 | 0.00 | 50 | 1011.7 |
| 20260830122432 | 86 | 360 | 0.0 | 0.0 | 0.00 | 0.00 | 0.00 | 49 | 1011.7 |
| 20260830122333 | 86 | 360 | 0.0 | 0.0 | 0.00 | 0.00 | 0.00 | 49 | 1011.7 |
| 20260830122220 | 86 | 360 | 0.0 | 0.0 | 0.00 | 0.00 | 0.00 | 49 | 1011.8 |
| 20260830122122 | 86 | 360 | 0.0 | 0.0 | 0.00 | 0.00 | 0.00 | 49 | 1011.7 |
| 20260830122053 | 86 | 360 | 0.0 | 0.0 | 0.00 | 0.00 | 0.00 | 50 | 1011.7 |
| 20260830121917 | 86 | 360 | 0.0 | 0.0 | 0.00 | 0.00 | 0.00 | 50 | 1011.6 |
| 20260830121816 | 86 | 360 | 0.0 | 0.0 | 0.00 | 0.00 | 0.00 | 50 | 1011.6 |
| 20260830121745 | 86 | 360 | 0.0 | 0.0 | 0.00 | 0.00 | 0.00 | 50 | 1011.5 |
| 20260830121627 | 86 | 360 | 0.0 | 0.0 | 0.00 | 0.00 | 0.00 | 50 | 1011.6 |
| 20260830121529 | 86 | 360 | 0.0 | 1.0 | 0.00 | 0.00 | 0.00 | 50 | 1011.5 |
| 20260830121439 | 86 | 360 | 0.0 | 1.0 | 0.00 | 0.00 | 0.00 | 50 | 1011.5 |
| 20260830121322 | 86 | 360 | 0.0 | 1.0 | 0.00 | 0.00 | 0.00 | 50 | 1011.6 |
| 20260830121233 | 86 | 360 | 0.0 | 2.0 | 0.00 | 0.00 | 0.00 | 50 | 1011.6 |
| 20260830121134 | 86 | 360 | 0.0 | 2.0 | 0.00 | 0.00 | 0.00 | 50 | 1011.6 |
| 20260830121017 | 86 | 360 | 0.0 | 2.0 | 0.00 | 0.00 | 0.00 | 50 | 1011.7 |
| 20260830120919 | 86 | 360 | 0.0 | 2.0 | 0.00 | 0.00 | 0.00 | 50 | 1011.6 |
| 20260830120848 | 86 | 360 | 0.0 | 3.0 | 0.00 | 0.00 | 0.00 | 50 | 1011.6 |
| 20260830120731 | 86 | 360 | 0.0 | 3.0 | 0.00 | 0.00 | 0.00 | 50 | 1011.6 |
| 20260830120616 | 86 | 360 | 0.0 | 3.0 | 0.00 | 0.00 | 0.00 | 50 | 1011.5 |
| 20260830120526 | 86 | 360 | 1.0 | 3.0 | 0.00 | 0.00 | 0.00 | 50 | 1011.6 |
| 20260830120447 | 86 | 360 | 1.0 | 3.0 | 0.00 | 0.00 | 0.00 | 50 | 1011.6 |
| 20260830120337 | 86 | 360 | 1.0 | 3.0 | 0.00 | 0.00 | 0.00 | 50 | 1011.6 |
| 20260830120216 | 86 | 360 | 0.0 | 3.0 | 0.00 | 0.00 | 0.00 | 50 | 1011.6 |
| 20260830120140 | 86 | 360 | 0.0 | 3.0 | 0.00 | 0.00 | 0.00 | 50 | 1011.6 |
| 20260830120105 | 86 | 360 | 1.0 | 3.0 | 0.00 | 0.00 | 0.00 | 50 | 1011.6 |
| 20260830115933 | 86 | 360 | 0.0 | 3.0 | 0.00 | 0.00 | 0.00 | 50 | 1011.4 |
| 20260830115843 | 86 | 360 | 0.0 | 2.0 | 0.00 | 0.00 | 0.00 | 50 | 1011.5 |
| 20260830115640 | 86 | 360 | 1.0 | 2.0 | 0.00 | 0.00 | 0.00 | 50 | 1011.6 |
| 20260830115523 | 86 | 360 | 1.0 | 8.0 | 0.00 | 0.00 | 0.00 | 50 | 1011.6 |
| 20260830115424 | 86 | 360 | 1.0 | 8.0 | 0.00 | 0.00 | 0.00 | 50 | 1011.6 |
| 20260830115358 | 86 | 360 | 1.0 | 8.0 | 0.00 | 0.00 | 0.00 | 50 | 1011.6 |
| 20260830115221 | 86 | 360 | 1.0 | 8.0 | 0.00 | 0.00 | 0.00 | 50 | 1011.6 |
| 20260830115123 | 86 | 360 | 1.0 | 8.0 | 0.00 | 0.00 | 0.00 | 50 | 1011.6 |
| 20260830115025 | 86 | 360 | 1.0 | 8.0 | 0.00 | 0.00 | 0.00 | 50 | 1011.5 |
| 20260830114935 | 86 | 360 | 1.0 | 8.0 | 0.00 | 0.00 | 0.00 | 50 | 1011.5 |
| 20260830114816 | 86 | 360 | 2.0 | 8.0 | 0.00 | 0.00 | 0.00 | 50 | 1011.5 |
| 20260830114742 | 86 | 360 | 2.0 | 8.0 | 0.00 | 0.00 | 0.00 | 51 | 1011.6 |
| 20260830114632 | 86 | 360 | 2.0 | 7.0 | 0.00 | 0.00 | 0.00 | 51 | 1011.6 |
| 20260830114534 | 86 | 360 | 3.0 | 7.0 | 0.00 | 0.00 | 0.00 | 51 | 1011.6 |
| 20260830114417 | 86 | 360 | 3.0 | 6.0 | 0.00 | 0.00 | 0.00 | 51 | 1011.6 |
| 20260830114319 | 86 | 360 | 3.0 | 6.0 | 0.00 | 0.00 | 0.00 | 51 | 1011.7 |
| 20260830114228 | 86 | 360 | 2.0 | 6.0 | 0.00 | 0.00 | 0.00 | 51 | 1011.6 |
| 20260830114134 | 86 | 360 | 2.0 | 5.0 | 0.00 | 0.00 | 0.00 | 51 | 1011.6 |
| 20260830114016 | 86 | 360 | 3.0 | 5.0 | 0.00 | 0.00 | 0.00 | 51 | 1011.6 |
| 20260830113927 | 86 | 360 | 2.0 | 5.0 | 0.00 | 0.00 | 0.00 | 51 | 1011.6 |
| 20260830113829 | 86 | 360 | 2.0 | 5.0 | 0.00 | 0.00 | 0.00 | 51 | 1011.6 |
| 20260830113714 | 86 | 360 | 2.0 | 5.0 | 0.00 | 0.00 | 0.00 | 51 | 1011.7 |
| 20260830113626 | 86 | 360 | 2.0 | 6.0 | 0.00 | 0.00 | 0.00 | 51 | 1011.6 |
| 20260830113515 | 86 | 360 | 2.0 | 6.0 | 0.00 | 0.00 | 0.00 | 50 | 1011.6 |
| 20260830113440 | 86 | 360 | 2.0 | 6.0 | 0.00 | 0.00 | 0.00 | 50 | 1011.7 |
| 20260830113332 | 86 | 360 | 2.0 | 6.0 | 0.00 | 0.00 | 0.00 | 50 | 1011.7 |
| 20260830113238 | 86 | 360 | 2.0 | 6.0 | 0.00 | 0.00 | 0.00 | 50 | 1011.6 |
| 20260830113122 | 86 | 360 | 2.0 | 6.0 | 0.00 | 0.00 | 0.00 | 50 | 1011.7 |
| 20260830113035 | 86 | 360 | 2.0 | 6.0 | 0.00 | 0.00 | 0.00 | 50 | 1011.7 |
| 20260830112919 | 86 | 360 | 3.0 | 6.0 | 0.00 | 0.00 | 0.00 | 50 | 1011.8 |
| 20260830112829 | 86 | 360 | 3.0 | 6.0 | 0.00 | 0.00 | 0.00 | 50 | 1011.8 |
| 20260830112713 | 86 | 360 | 3.0 | 6.0 | 0.00 | 0.00 | 0.00 | 50 | 1011.6 |
| 20260830112628 | 86 | 360 | 3.0 | 5.0 | 0.00 | 0.00 | 0.00 | 50 | 1011.6 |
| 20260830112513 | 86 | 360 | 3.0 | 5.0 | 0.00 | 0.00 | 0.00 | 50 | 1011.6 |
| 20260830112438 | 86 | 360 | 3.0 | 5.0 | 0.00 | 0.00 | 0.00 | 49 | 1011.6 |
| 20260830112314 | 86 | 360 | 3.0 | 5.0 | 0.00 | 0.00 | 0.00 | 49 | 1011.5 |
| 20260830112217 | 86 | 360 | 3.0 | 5.0 | 0.00 | 0.00 | 0.00 | 49 | 1011.6 |
| 20260830112122 | 86 | 360 | 2.0 | 5.0 | 0.00 | 0.00 | 0.00 | 49 | 1011.5 |
| 20260830112034 | 86 | 360 | 1.0 | 4.0 | 0.00 | 0.00 | 0.00 | 49 | 1011.4 |
| 20260830111917 | 86 | 360 | 1.0 | 4.0 | 0.00 | 0.00 | 0.00 | 49 | 1011.6 |
| 20260830111850 | 86 | 360 | 2.0 | 4.0 | 0.00 | 0.00 | 0.00 | 49 | 1011.6 |
| 20260830111752 | 86 | 360 | 1.0 | 4.0 | 0.00 | 0.00 | 0.00 | 49 | 1011.5 |
| 20260830111619 | 86 | 360 | 1.0 | 4.0 | 0.00 | 0.00 | 0.00 | 49 | 1011.6 |
| 20260830111532 | 87 | 360 | 1.0 | 4.0 | 0.00 | 0.00 | 0.00 | 49 | 1011.6 |
| 20260830111417 | 87 | 360 | 2.0 | 4.0 | 0.00 | 0.00 | 0.00 | 49 | 1011.6 |
| 20260830111321 | 87 | 360 | 1.0 | 4.0 | 0.00 | 0.00 | 0.00 | 49 | 1011.6 |
| 20260830111255 | 87 | 360 | 1.0 | 3.0 | 0.00 | 0.00 | 0.00 | 49 | 1011.6 |
| 20260830111120 | 87 | 360 | 0.0 | 3.0 | 0.00 | 0.00 | 0.00 | 49 | 1011.6 |
| 20260830111045 | 87 | 360 | 0.0 | 0.0 | 0.00 | 0.00 | 0.00 | 49 | 1011.6 |
| 20260830110912 | 87 | 360 | 0.0 | 0.0 | 0.00 | 0.00 | 0.00 | 49 | 1011.6 |
| 20260830110824 | 87 | 360 | 0.0 | 0.0 | 0.00 | 0.00 | 0.00 | 49 | 1011.6 |
| 20260830110730 | 86 | 360 | 0.0 | 0.0 | 0.00 | 0.00 | 0.00 | 49 | 1011.6 |
| 20260830110612 | 86 | 360 | 0.0 | 0.0 | 0.00 | 0.00 | 0.00 | 49 | 1011.6 |
| 20260830110517 | 86 | 360 | 0.0 | 0.0 | 0.00 | 0.00 | 0.00 | 49 | 1011.6 |
| 20260830110434 | 86 | 360 | 0.0 | 0.0 | 0.00 | 0.00 | 0.00 | 49 | 1011.6 |
| 20260830110319 | 86 | 360 | 0.0 | 0.0 | 0.00 | 0.00 | 0.00 | 49 | 1011.6 |
| 20260830110224 | 86 | 360 | 0.0 | 0.0 | 0.00 | 0.00 | 0.00 | 50 | 1011.6 |
| 20260830110157 | 86 | 360 | 0.0 | 0.0 | 0.00 | 0.00 | 0.00 | 49 | 1011.6 |
| 20260830110032 | 87 | 360 | 0.0 | 0.0 | 0.00 | 0.00 | 0.00 | 49 | 1011.6 |
| 20260830105923 | 87 | 360 | 0.0 | 0.0 | 0.00 | 0.00 | 0.00 | 49 | 1011.6 |
| 20260830105811 | 87 | 360 | 0.0 | 0.0 | 0.00 | 0.00 | 0.00 | 49 | 1011.6 |
| 20260830105722 | 87 | 360 | 0.0 | 0.0 | 0.00 | 0.00 | 0.00 | 49 | 1011.6 |
| 20260830105431 | 87 | 360 | 0.0 | 0.0 | 0.00 | 0.00 | 0.00 | 49 | 1011.6 |
| 20260830105336 | 87 | 360 | 0.0 | 0.0 | 0.00 | 0.00 | 0.00 | 49 | 1011.7 |
| 20260830105227 | 87 | 360 | 0.0 | 0.0 | 0.00 | 0.00 | 0.00 | 49 | 1011.7 |
| 20260830105111 | 87 | 360 | 0.0 | 0.0 | 0.00 | 0.00 | 0.00 | 49 | 1011.7 |
| 20260830105030 | 87 | 360 | 0.0 | 0.0 | 0.00 | 0.00 | 0.00 | 49 | 1011.7 |
| 20260830104933 | 87 | 360 | 0.0 | 0.0 | 0.00 | 0.00 | 0.00 | 49 | 1011.7 |
| 20260830104819 | 87 | 360 | 0.0 | 0.0 | 0.00 | 0.00 | 0.00 | 49 | 1011.7 |
| 20260830104725 | 87 | 360 | 0.0 | 0.0 | 0.00 | 0.00 | 0.00 | 49 | 1011.6 |
| 20260830104638 | 87 | 360 | 0.0 | 0.0 | 0.00 | 0.00 | 0.00 | 49 | 1011.6 |
| 20260830104521 | 87 | 360 | 0.0 | 0.0 | 0.00 | 0.00 | 0.00 | 49 | 1011.7 |
| 20260830104429 | 87 | 360 | 0.0 | 0.0 | 0.00 | 0.00 | 0.00 | 49 | 1011.7 |
| 20260830104312 | 87 | 360 | 0.0 | 0.0 | 0.00 | 0.00 | 0.00 | 49 | 1011.6 |
| 20260830104216 | 87 | 360 | 0.0 | 0.0 | 0.00 | 0.00 | 0.00 | 49 | 1011.6 |
| 20260830104150 | 87 | 360 | 0.0 | 0.0 | 0.00 | 0.00 | 0.00 | 49 | 1011.6 |
| 20260830104100 | 87 | 360 | 0.0 | 0.0 | 0.00 | 0.00 | 0.00 | 49 | 1011.6 |
| 20260830103922 | 87 | 360 | 0.0 | 0.0 | 0.00 | 0.00 | 0.00 | 49 | 1011.5 |
| 20260830103849 | 87 | 360 | 0.0 | 0.0 | 0.00 | 0.00 | 0.00 | 49 | 1011.5 |
| 20260830103722 | 87 | 360 | 0.0 | 0.0 | 0.00 | 0.00 | 0.00 | 49 | 1011.5 |
| 20260830103626 | 87 | 360 | 0.0 | 0.0 | 0.00 | 0.00 | 0.00 | 49 | 1011.6 |
| 20260830103531 | 87 | 360 | 0.0 | 0.0 | 0.00 | 0.00 | 0.00 | 49 | 1011.6 |
| 20260830103416 | 87 | 360 | 0.0 | 0.0 | 0.00 | 0.00 | 0.00 | 49 | 1011.6 |
| 20260830103326 | 87 | 360 | 0.0 | 0.0 | 0.00 | 0.00 | 0.00 | 49 | 1011.6 |
| 20260830103151 | 87 | 360 | 0.0 | 0.0 | 0.00 | 0.00 | 0.00 | 49 | 1011.6 |
| 20260830103013 | 87 | 360 | 0.0 | 0.0 | 0.00 | 0.00 | 0.00 | 49 | 1011.6 |
| 20260830102917 | 87 | 360 | 0.0 | 0.0 | 0.00 | 0.00 | 0.00 | 49 | 1011.5 |
| 20260830102851 | 87 | 360 | 0.0 | 0.0 | 0.00 | 0.00 | 0.00 | 49 | 1011.5 |
| 20260830102735 | 87 | 360 | 0.0 | 0.0 | 0.00 | 0.00 | 0.00 | 49 | 1011.4 |
| 20260830102616 | 87 | 360 | 0.0 | 0.0 | 0.00 | 0.00 | 0.00 | 49 | 1011.4 |
| 20260830102550 | 87 | 360 | 0.0 | 0.0 | 0.00 | 0.00 | 0.00 | 49 | 1011.4 |
| 20260830102416 | 87 | 360 | 0.0 | 0.0 | 0.00 | 0.00 | 0.00 | 49 | 1011.4 |
| 20260830102330 | 87 | 360 | 0.0 | 0.0 | 0.00 | 0.00 | 0.00 | 49 | 1011.4 |
| 20260830102232 | 87 | 360 | 0.0 | 0.0 | 0.00 | 0.00 | 0.00 | 49 | 1011.4 |
| 20260830102117 | 87 | 360 | 0.0 | 0.0 | 0.00 | 0.00 | 0.00 | 49 | 1011.4 |
| 20260830102020 | 87 | 360 | 0.0 | 0.0 | 0.00 | 0.00 | 0.00 | 49 | 1011.4 |
| 20260830101933 | 87 | 360 | 0.0 | 0.0 | 0.00 | 0.00 | 0.00 | 49 | 1011.4 |
| 20260830101823 | 87 | 360 | 0.0 | 0.0 | 0.00 | 0.00 | 0.00 | 49 | 1011.4 |
| 20260830101749 | 87 | 360 | 0.0 | 0.0 | 0.00 | 0.00 | 0.00 | 49 | 1011.4 |
| 20260830101639 | 87 | 360 | 0.0 | 0.0 | 0.00 | 0.00 | 0.00 | 49 | 1011.4 |
| 20260830101522 | 87 | 360 | 0.0 | 0.0 | 0.00 | 0.00 | 0.00 | 49 | 1011.4 |
| 20260830101455 | 87 | 360 | 0.0 | 0.0 | 0.00 | 0.00 | 0.00 | 49 | 1011.4 |
| 20260830101317 | 87 | 360 | 0.0 | 0.0 | 0.00 | 0.00 | 0.00 | 49 | 1011.4 |
| 20260830101250 | 87 | 360 | 0.0 | 0.0 | 0.00 | 0.00 | 0.00 | 49 | 1011.4 |
| 20260830101117 | 87 | 360 | 0.0 | 0.0 | 0.00 | 0.00 | 0.00 | 49 | 1011.3 |
| 20260830101042 | 87 | 360 | 0.0 | 0.0 | 0.00 | 0.00 | 0.00 | 49 | 1011.3 |
| 20260830100934 | 87 | 360 | 0.0 | 0.0 | 0.00 | 0.00 | 0.00 | 49 | 1011.3 |
| 20260830100819 | 87 | 360 | 0.0 | 2.0 | 0.00 | 0.00 | 0.00 | 49 | 1011.3 |
| 20260830100754 | 87 | 360 | 0.0 | 2.0 | 0.00 | 0.00 | 0.00 | 49 | 1011.3 |
| 20260830100619 | 87 | 360 | 0.0 | 2.0 | 0.00 | 0.00 | 0.00 | 49 | 1011.3 |
| 20260830100543 | 87 | 360 | 0.0 | 2.0 | 0.00 | 0.00 | 0.00 | 49 | 1011.3 |
| 20260830100435 | 87 | 360 | 0.0 | 2.0 | 0.00 | 0.00 | 0.00 | 49 | 1011.3 |
| 20260830100339 | 87 | 360 | 0.0 | 2.0 | 0.00 | 0.00 | 0.00 | 49 | 1011.3 |
| 20260830100230 | 87 | 360 | 0.0 | 2.0 | 0.00 | 0.00 | 0.00 | 49 | 1011.3 |
| 20260830100154 | 87 | 360 | 0.0 | 2.0 | 0.00 | 0.00 | 0.00 | 49 | 1011.3 |
| 20260830100024 | 87 | 360 | 1.0 | 2.0 | 0.00 | 0.00 | 0.00 | 49 | 1011.2 |
| 20260830095918 | 87 | 360 | 1.0 | 2.0 | 0.00 | 0.00 | 0.00 | 49 | 1011.3 |
| 20260830095821 | 87 | 360 | 1.0 | 2.0 | 0.00 | 0.00 | 0.00 | 49 | 1011.2 |
| 20260830095737 | 87 | 360 | 1.0 | 2.0 | 0.00 | 0.00 | 0.00 | 49 | 1011.3 |
| 20260830095642 | 87 | 360 | 1.0 | 2.0 | 0.00 | 0.00 | 0.00 | 49 | 1011.3 |
| 20260830095613 | 87 | 360 | 0.0 | 2.0 | 0.00 | 0.00 | 0.00 | 49 | 1011.3 |
| 20260830095339 | 87 | 360 | 0.0 | 2.0 | 0.00 | 0.00 | 0.00 | 49 | 1011.3 |
| 20260830095251 | 87 | 360 | 0.0 | 2.0 | 0.00 | 0.00 | 0.00 | 49 | 1011.3 |
| 20260830095116 | 87 | 360 | 0.0 | 2.0 | 0.00 | 0.00 | 0.00 | 49 | 1011.3 |
| 20260830095021 | 87 | 360 | 0.0 | 2.0 | 0.00 | 0.00 | 0.00 | 49 | 1011.4 |
| 20260830094938 | 87 | 360 | 0.0 | 2.0 | 0.00 | 0.00 | 0.00 | 49 | 1011.4 |
| 20260830094815 | 87 | 360 | 0.0 | 2.0 | 0.00 | 0.00 | 0.00 | 49 | 1011.4 |
| 20260830094729 | 87 | 360 | 0.0 | 2.0 | 0.00 | 0.00 | 0.00 | 49 | 1011.4 |
| 20260830094614 | 87 | 360 | 1.0 | 2.0 | 0.00 | 0.00 | 0.00 | 49 | 1011.3 |
| 20260830094519 | 87 | 360 | 1.0 | 2.0 | 0.00 | 0.00 | 0.00 | 49 | 1011.4 |
| 20260830094436 | 87 | 360 | 1.0 | 2.0 | 0.00 | 0.00 | 0.00 | 49 | 1011.3 |
| 20260830094339 | 87 | 360 | 1.0 | 2.0 | 0.00 | 0.00 | 0.00 | 49 | 1011.3 |
| 20260830094230 | 87 | 360 | 0.0 | 2.0 | 0.00 | 0.00 | 0.00 | 49 | 1011.3 |
| 20260830094115 | 87 | 360 | 0.0 | 0.0 | 0.00 | 0.00 | 0.00 | 49 | 1011.3 |
| 20260830094019 | 87 | 360 | 0.0 | 0.0 | 0.00 | 0.00 | 0.00 | 49 | 1011.2 |
| 20260830093952 | 87 | 360 | 0.0 | 0.0 | 0.00 | 0.00 | 0.00 | 49 | 1011.2 |
| 20260830093816 | 87 | 360 | 0.0 | 1.0 | 0.00 | 0.00 | 0.00 | 49 | 1011.1 |
| 20260830093726 | 87 | 360 | 0.0 | 1.0 | 0.00 | 0.00 | 0.00 | 49 | 1011.2 |
| 20260830093615 | 87 | 360 | 0.0 | 1.0 | 0.00 | 0.00 | 0.00 | 49 | 1011.1 |
| 20260830093526 | 87 | 360 | 0.0 | 1.0 | 0.00 | 0.00 | 0.00 | 49 | 1011.2 |
| 20260830093459 | 87 | 360 | 0.0 | 2.0 | 0.00 | 0.00 | 0.00 | 49 | 1011.2 |
| 20260830093331 | 87 | 360 | 0.0 | 2.0 | 0.00 | 0.00 | 0.00 | 49 | 1011.1 |
| 20260830093235 | 87 | 360 | 0.0 | 2.0 | 0.00 | 0.00 | 0.00 | 49 | 1011.1 |
| 20260830093126 | 87 | 360 | 0.0 | 2.0 | 0.00 | 0.00 | 0.00 | 49 | 1011.1 |
| 20260830093031 | 87 | 360 | 0.0 | 2.0 | 0.00 | 0.00 | 0.00 | 49 | 1011.1 |
| 20260830092921 | 87 | 360 | 0.0 | 2.0 | 0.00 | 0.00 | 0.00 | 49 | 1011.1 |
| 20260830092825 | 87 | 360 | 0.0 | 2.0 | 0.00 | 0.00 | 0.00 | 49 | 1011.2 |
| 20260830092738 | 87 | 360 | 0.0 | 2.0 | 0.00 | 0.00 | 0.00 | 49 | 1011.2 |
| 20260830092621 | 87 | 360 | 0.0 | 2.0 | 0.00 | 0.00 | 0.00 | 49 | 1011.2 |
| 20260830092526 | 87 | 360 | 0.0 | 0.0 | 0.00 | 0.00 | 0.00 | 49 | 1011.2 |
| 20260830092438 | 87 | 360 | 0.0 | 0.0 | 0.00 | 0.00 | 0.00 | 49 | 1011.1 |
| 20260830092321 | 87 | 360 | 0.0 | 0.0 | 0.00 | 0.00 | 0.00 | 49 | 1011.1 |
| 20260830092238 | 87 | 360 | 0.0 | 0.0 | 0.00 | 0.00 | 0.00 | 49 | 1011.2 |
| 20260830092123 | 87 | 360 | 0.0 | 0.0 | 0.00 | 0.00 | 0.00 | 49 | 1011.1 |
| 20260830092026 | 87 | 360 | 0.0 | 0.0 | 0.00 | 0.00 | 0.00 | 49 | 1011.2 |
| 20260830091939 | 87 | 360 | 0.0 | 1.0 | 0.00 | 0.00 | 0.00 | 49 | 1011.2 |
| 20260830091823 | 87 | 360 | 0.0 | 2.0 | 0.00 | 0.00 | 0.00 | 49 | 1011.2 |
| 20260830091712 | 87 | 360 | 0.0 | 2.0 | 0.00 | 0.00 | 0.00 | 49 | 1011.2 |
| 20260830091618 | 87 | 360 | 0.0 | 3.0 | 0.00 | 0.00 | 0.00 | 49 | 1011.1 |
| 20260830091522 | 87 | 360 | 0.0 | 3.0 | 0.00 | 0.00 | 0.00 | 49 | 1011.1 |
| 20260830091434 | 87 | 360 | 0.0 | 3.0 | 0.00 | 0.00 | 0.00 | 49 | 1011.2 |
| 20260830091318 | 87 | 360 | 0.0 | 3.0 | 0.00 | 0.00 | 0.00 | 49 | 1011.2 |
| 20260830091233 | 87 | 360 | 0.0 | 3.0 | 0.00 | 0.00 | 0.00 | 49 | 1011.2 |
| 20260830091121 | 87 | 360 | 1.0 | 3.0 | 0.00 | 0.00 | 0.00 | 49 | 1011.1 |
| 20260830091027 | 87 | 360 | 1.0 | 3.0 | 0.00 | 0.00 | 0.00 | 49 | 1011.1 |
| 20260830090912 | 87 | 360 | 1.0 | 3.0 | 0.00 | 0.00 | 0.00 | 49 | 1011.1 |
| 20260830090817 | 87 | 360 | 1.0 | 3.0 | 0.00 | 0.00 | 0.00 | 49 | 1011.1 |
| 20260830090730 | 87 | 360 | 1.0 | 3.0 | 0.00 | 0.00 | 0.00 | 49 | 1011.1 |
| 20260830090613 | 87 | 360 | 0.0 | 2.0 | 0.00 | 0.00 | 0.00 | 49 | 1011.2 |
| 20260830090524 | 87 | 360 | 0.0 | 2.0 | 0.00 | 0.00 | 0.00 | 49 | 1011.3 |
| 20260830090414 | 87 | 360 | 0.0 | 0.0 | 0.00 | 0.00 | 0.00 | 49 | 1011.3 |
| 20260830090319 | 87 | 360 | 0.0 | 0.0 | 0.00 | 0.00 | 0.00 | 49 | 1011.3 |
| 20260830090223 | 87 | 360 | 0.0 | 0.0 | 0.00 | 0.00 | 0.00 | 49 | 1011.3 |
| 20260830090136 | 87 | 360 | 0.0 | 0.0 | 0.00 | 0.00 | 0.00 | 49 | 1011.3 |
| 20260830090032 | 87 | 360 | 0.0 | 0.0 | 0.00 | 0.00 | 0.00 | 49 | 1011.4 |
| 20260830085927 | 88 | 360 | 0.0 | 0.0 | 0.00 | 0.00 | 0.00 | 49 | 1011.3 |
| 20260830085840 | 88 | 360 | 0.0 | 0.0 | 0.00 | 0.00 | 0.00 | 49 | 1011.3 |
| 20260830085723 | 88 | 360 | 0.0 | 0.0 | 0.00 | 0.00 | 0.00 | 49 | 1011.3 |
| 20260830085630 | 88 | 360 | 0.0 | 0.0 | 0.00 | 0.00 | 0.00 | 48 | 1011.3 |
| 20260830085535 | 88 | 360 | 0.0 | 0.0 | 0.00 | 0.00 | 0.00 | 49 | 1011.3 |
| 20260830085508 | 88 | 360 | 0.0 | 0.0 | 0.00 | 0.00 | 0.00 | 49 | 1011.2 |
| 20260830085409 | 88 | 360 | 0.0 | 0.0 | 0.00 | 0.00 | 0.00 | 49 | 1011.3 |
| 20260830085215 | 88 | 360 | 0.0 | 0.0 | 0.00 | 0.00 | 0.00 | 49 | 1011.3 |
| 20260830085120 | 88 | 360 | 0.0 | 0.0 | 0.00 | 0.00 | 0.00 | 49 | 1011.3 |
| 20260830085054 | 88 | 360 | 0.0 | 0.0 | 0.00 | 0.00 | 0.00 | 49 | 1011.3 |
| 20260830084919 | 88 | 360 | 0.0 | 0.0 | 0.00 | 0.00 | 0.00 | 49 | 1011.3 |
| 20260830084824 | 88 | 360 | 0.0 | 0.0 | 0.00 | 0.00 | 0.00 | 49 | 1011.3 |
| 20260830084730 | 88 | 360 | 0.0 | 0.0 | 0.00 | 0.00 | 0.00 | 49 | 1011.3 |
| 20260830084619 | 88 | 360 | 0.0 | 0.0 | 0.00 | 0.00 | 0.00 | 48 | 1011.4 |
| 20260830084533 | 88 | 360 | 0.0 | 0.0 | 0.00 | 0.00 | 0.00 | 48 | 1011.4 |
| 20260830084417 | 88 | 360 | 0.0 | 0.0 | 0.00 | 0.00 | 0.00 | 49 | 1011.2 |
| 20260830084321 | 88 | 360 | 0.0 | 1.0 | 0.00 | 0.00 | 0.00 | 49 | 1011.3 |
| 20260830084234 | 88 | 360 | 0.0 | 1.0 | 0.00 | 0.00 | 0.00 | 48 | 1011.3 |
| 20260830084119 | 88 | 360 | 0.0 | 1.0 | 0.00 | 0.00 | 0.00 | 48 | 1011.3 |
| 20260830084029 | 88 | 360 | 0.0 | 1.0 | 0.00 | 0.00 | 0.00 | 48 | 1011.3 |
| 20260830083912 | 88 | 360 | 0.0 | 2.0 | 0.00 | 0.00 | 0.00 | 48 | 1011.2 |
| 20260830083841 | 88 | 360 | 0.0 | 2.0 | 0.00 | 0.00 | 0.00 | 48 | 1011.2 |
| 20260830083724 | 88 | 360 | 0.0 | 2.0 | 0.00 | 0.00 | 0.00 | 48 | 1011.2 |
| 20260830083637 | 88 | 360 | 0.0 | 2.0 | 0.00 | 0.00 | 0.00 | 48 | 1011.2 |
| 20260830083540 | 88 | 360 | 0.0 | 2.0 | 0.00 | 0.00 | 0.00 | 48 | 1011.1 |
| 20260830083452 | 88 | 360 | 0.0 | 2.0 | 0.00 | 0.00 | 0.00 | 48 | 1011.1 |
| 20260830083320 | 88 | 360 | 0.0 | 2.0 | 0.00 | 0.00 | 0.00 | 48 | 1011.1 |
| 20260830083224 | 88 | 360 | 0.0 | 2.0 | 0.00 | 0.00 | 0.00 | 48 | 1011.1 |
| 20260830083129 | 88 | 360 | 1.0 | 2.0 | 0.00 | 0.00 | 0.00 | 48 | 1011.1 |
| 20260830083013 | 89 | 360 | 0.0 | 2.0 | 0.00 | 0.00 | 0.00 | 48 | 1011.1 |
| 20260830082925 | 89 | 360 | 0.0 | 2.0 | 0.00 | 0.00 | 0.00 | 48 | 1011.1 |
| 20260830082814 | 89 | 360 | 0.0 | 2.0 | 0.00 | 0.00 | 0.00 | 47 | 1010.9 |
| 20260830082718 | 89 | 360 | 0.0 | 3.0 | 0.00 | 0.00 | 0.00 | 47 | 1011.0 |
| 20260830082622 | 89 | 360 | 0.0 | 3.0 | 0.00 | 0.00 | 0.00 | 47 | 1011.0 |
| 20260830082536 | 89 | 360 | 0.0 | 3.0 | 0.00 | 0.00 | 0.00 | 47 | 1011.0 |
| 20260830082419 | 89 | 360 | 0.0 | 3.0 | 0.00 | 0.00 | 0.00 | 47 | 1011.1 |
| 20260830082346 | 89 | 360 | 1.0 | 3.0 | 0.00 | 0.00 | 0.00 | 47 | 1011.1 |
| 20260830082115 | 89 | 360 | 1.0 | 3.0 | 0.00 | 0.00 | 0.00 | 46 | 1011.1 |
| 20260830082018 | 89 | 360 | 1.0 | 3.0 | 0.00 | 0.00 | 0.00 | 46 | 1011.1 |
| 20260830081932 | 90 | 360 | 1.0 | 3.0 | 0.00 | 0.00 | 0.00 | 46 | 1011.1 |
| 20260830081818 | 90 | 360 | 1.0 | 3.0 | 0.00 | 0.00 | 0.00 | 46 | 1011.2 |
| 20260830081722 | 90 | 360 | 1.0 | 3.0 | 0.00 | 0.00 | 0.00 | 46 | 1011.2 |
| 20260830081632 | 90 | 360 | 1.0 | 3.0 | 0.00 | 0.00 | 0.00 | 45 | 1011.2 |
| 20260830081522 | 90 | 360 | 1.0 | 4.0 | 0.00 | 0.00 | 0.00 | 45 | 1011.1 |
| 20260830081429 | 90 | 360 | 1.0 | 4.0 | 0.00 | 0.00 | 0.00 | 45 | 1011.1 |
| 20260830081312 | 90 | 360 | 1.0 | 5.0 | 0.00 | 0.00 | 0.00 | 45 | 1011.2 |
| 20260830081224 | 90 | 360 | 1.0 | 6.0 | 0.00 | 0.00 | 0.00 | 45 | 1011.2 |
| 20260830081129 | 90 | 360 | 1.0 | 6.0 | 0.00 | 0.00 | 0.00 | 45 | 1011.2 |
| 20260830081019 | 90 | 360 | 1.0 | 7.0 | 0.00 | 0.00 | 0.00 | 45 | 1011.2 |
| 20260830080923 | 90 | 360 | 1.0 | 7.0 | 0.00 | 0.00 | 0.00 | 45 | 1011.1 |
| 20260830080836 | 90 | 360 | 1.0 | 7.0 | 0.00 | 0.00 | 0.00 | 45 | 1011.1 |
| 20260830080718 | 90 | 360 | 1.0 | 7.0 | 0.00 | 0.00 | 0.00 | 45 | 1011.1 |
| 20260830080623 | 90 | 360 | 1.0 | 7.0 | 0.00 | 0.00 | 0.00 | 45 | 1011.1 |
| 20260830080538 | 90 | 360 | 1.0 | 10.0 | 0.00 | 0.00 | 0.00 | 45 | 1011.1 |
| 20260830080446 | 90 | 360 | 1.0 | 10.0 | 0.00 | 0.00 | 0.00 | 45 | 1011.1 |
| 20260830080358 | 90 | 360 | 1.0 | 10.0 | 0.00 | 0.00 | 0.00 | 45 | 1011.1 |
| 20260830080220 | 90 | 360 | 2.0 | 10.0 | 0.00 | 0.00 | 0.00 | 45 | 1011.1 |
| 20260830080124 | 90 | 360 | 2.0 | 10.0 | 0.00 | 0.00 | 0.00 | 45 | 1011.1 |
| 20260830080029 | 90 | 360 | 1.0 | 10.0 | 0.00 | 0.00 | 0.00 | 45 | 1011.1 |
| 20260830075940 | 90 | 360 | 2.0 | 11.0 | 0.00 | 0.00 | 0.00 | 45 | 1011.2 |
| 20260830075833 | 90 | 360 | 3.0 | 11.0 | 0.00 | 0.00 | 0.00 | 45 | 1011.2 |
| 20260830075721 | 90 | 360 | 3.0 | 11.0 | 0.00 | 0.00 | 0.00 | 45 | 1011.2 |
| 20260830075627 | 90 | 360 | 2.0 | 11.0 | 0.00 | 0.00 | 0.00 | 45 | 1011.2 |
| 20260830075529 | 90 | 360 | 2.0 | 11.0 | 0.00 | 0.00 | 0.00 | 45 | 1011.2 |
| 20260830075440 | 90 | 360 | 3.0 | 11.0 | 0.00 | 0.00 | 0.00 | 45 | 1011.1 |
| 20260830075344 | 90 | 360 | 2.0 | 11.0 | 0.00 | 0.00 | 0.00 | 44 | 1011.1 |
| 20260830075252 | 90 | 360 | 5.0 | 11.0 | 0.00 | 0.00 | 0.00 | 44 | 1011.1 |
| 20260830075119 | 90 | 360 | 4.0 | 11.0 | 0.00 | 0.00 | 0.00 | 44 | 1011.1 |
| 20260830075029 | 90 | 360 | 2.0 | 11.0 | 0.00 | 0.00 | 0.00 | 44 | 1011.1 |
| 20260830074912 | 90 | 360 | 4.0 | 11.0 | 0.00 | 0.00 | 0.00 | 44 | 1011.1 |
| 20260830074825 | 90 | 360 | 5.0 | 11.0 | 0.00 | 0.00 | 0.00 | 45 | 1011.0 |
| 20260830074750 | 90 | 360 | 4.0 | 11.0 | 0.00 | 0.00 | 0.00 | 44 | 1011.0 |
| 20260830074612 | 90 | 360 | 2.0 | 11.0 | 0.00 | 0.00 | 0.00 | 44 | 1011.0 |
| 20260830074544 | 90 | 360 | 2.0 | 11.0 | 0.00 | 0.00 | 0.00 | 44 | 1010.9 |
| 20260830074441 | 90 | 360 | 2.0 | 11.0 | 0.00 | 0.00 | 0.00 | 44 | 1010.9 |
| 20260830074323 | 90 | 360 | 2.0 | 12.0 | 0.00 | 0.00 | 0.00 | 44 | 1010.9 |
| 20260830074229 | 90 | 360 | 4.0 | 15.0 | 0.00 | 0.00 | 0.00 | 44 | 1010.9 |
| 20260830074119 | 90 | 360 | 4.0 | 15.0 | 0.00 | 0.00 | 0.00 | 44 | 1010.9 |
| 20260830074023 | 90 | 360 | 4.0 | 16.0 | 0.00 | 0.00 | 0.00 | 44 | 1010.9 |
| 20260830073929 | 90 | 360 | 3.0 | 16.0 | 0.00 | 0.00 | 0.00 | 44 | 1010.9 |
| 20260830073734 | 90 | 360 | 3.0 | 16.0 | 0.00 | 0.00 | 0.00 | 45 | 1010.8 |
| 20260830073619 | 90 | 360 | 6.0 | 16.0 | 0.00 | 0.00 | 0.00 | 44 | 1010.8 |
| 20260830073522 | 90 | 360 | 8.0 | 16.0 | 0.00 | 0.00 | 0.00 | 44 | 1010.8 |
| 20260830073435 | 90 | 360 | 9.0 | 16.0 | 0.00 | 0.00 | 0.00 | 44 | 1010.8 |
| 20260830073339 | 90 | 360 | 8.0 | 16.0 | 0.00 | 0.00 | 0.00 | 44 | 1010.7 |
| 20260830073251 | 90 | 360 | 6.0 | 16.0 | 0.00 | 0.00 | 0.00 | 44 | 1010.7 |
| 20260830073118 | 90 | 360 | 3.0 | 12.0 | 0.00 | 0.00 | 0.00 | 44 | 1010.7 |
| 20260830073022 | 91 | 360 | 2.0 | 13.0 | 0.00 | 0.00 | 0.00 | 44 | 1010.6 |
| 20260830072925 | 91 | 94 | 2.0 | 13.0 | 0.00 | 0.00 | 0.00 | 44 | 1010.7 |
| 20260830072838 | 91 | 360 | 2.0 | 13.0 | 0.00 | 0.00 | 0.00 | 44 | 1010.7 |
| 20260830072723 | 91 | 360 | 4.0 | 13.0 | 0.00 | 0.00 | 0.00 | 44 | 1010.8 |
| 20260830072650 | 91 | 360 | 4.0 | 13.0 | 0.00 | 0.00 | 0.00 | 44 | 1010.8 |
| 20260830072517 | 91 | 360 | 2.0 | 13.0 | 0.00 | 0.00 | 0.00 | 44 | 1010.7 |
| 20260830072429 | 91 | 360 | 2.0 | 15.0 | 0.00 | 0.00 | 0.00 | 44 | 1010.7 |
| 20260830072314 | 91 | 360 | 5.0 | 15.0 | 0.00 | 0.00 | 0.00 | 44 | 1010.8 |
| 20260830072219 | 91 | 360 | 5.0 | 15.0 | 0.00 | 0.00 | 0.00 | 44 | 1010.8 |
| 20260830072123 | 91 | 360 | 4.0 | 15.0 | 0.00 | 0.00 | 0.00 | 44 | 1010.8 |
| 20260830072012 | 91 | 360 | 4.0 | 15.0 | 0.00 | 0.00 | 0.00 | 44 | 1010.8 |
| 20260830071924 | 91 | 360 | 4.0 | 15.0 | 0.00 | 0.00 | 0.00 | 44 | 1010.7 |
| 20260830071850 | 91 | 360 | 5.0 | 15.0 | 0.00 | 0.00 | 0.00 | 44 | 1010.7 |
| 20260830071739 | 91 | 360 | 7.0 | 16.0 | 0.00 | 0.00 | 0.00 | 44 | 1010.8 |
| 20260830071621 | 91 | 360 | 7.0 | 16.0 | 0.00 | 0.00 | 0.00 | 44 | 1010.6 |
| 20260830071557 | 91 | 360 | 8.0 | 16.0 | 0.00 | 0.00 | 0.00 | 43 | 1010.6 |
| 20260830071421 | 91 | 360 | 7.0 | 16.0 | 0.00 | 0.00 | 0.00 | 43 | 1010.7 |
| 20260830071347 | 92 | 360 | 7.0 | 16.0 | 0.00 | 0.00 | 0.00 | 43 | 1010.7 |
| 20260830071238 | 92 | 360 | 7.0 | 16.0 | 0.00 | 0.00 | 0.00 | 43 | 1010.7 |
| 20260830071123 | 92 | 360 | 8.0 | 16.0 | 0.00 | 0.00 | 0.00 | 43 | 1010.6 |
| 20260830071029 | 92 | 360 | 7.0 | 16.0 | 0.00 | 0.00 | 0.00 | 43 | 1010.6 |
| 20260830070913 | 92 | 360 | 4.0 | 16.0 | 0.00 | 0.00 | 0.00 | 43 | 1010.5 |
| 20260830070817 | 92 | 360 | 3.0 | 14.0 | 0.00 | 0.00 | 0.00 | 43 | 1010.5 |
| 20260830070734 | 92 | 360 | 5.0 | 14.0 | 0.00 | 0.00 | 0.00 | 43 | 1010.5 |
| 20260830070619 | 92 | 360 | 8.0 | 14.0 | 0.00 | 0.00 | 0.00 | 43 | 1010.5 |
| 20260830070520 | 92 | 360 | 6.0 | 14.0 | 0.00 | 0.00 | 0.00 | 43 | 1010.6 |
| 20260830070433 | 92 | 360 | 4.0 | 14.0 | 0.00 | 0.00 | 0.00 | 42 | 1010.6 |
| 20260830070319 | 93 | 360 | 3.0 | 14.0 | 0.00 | 0.00 | 0.00 | 42 | 1010.6 |
| 20260830070224 | 93 | 360 | 4.0 | 14.0 | 0.00 | 0.00 | 0.00 | 42 | 1010.5 |
| 20260830070112 | 93 | 360 | 4.0 | 14.0 | 0.00 | 0.00 | 0.00 | 41 | 1010.6 |
| 20260830070036 | 93 | 360 | 3.0 | 14.0 | 0.00 | 0.00 | 0.00 | 41 | 1010.6 |
| 20260830065929 | 93 | 98 | 3.0 | 12.0 | 0.00 | 0.00 | 0.00 | 41 | 1010.7 |
| 20260830065814 | 93 | 360 | 3.0 | 14.0 | 0.00 | 0.00 | 0.00 | 41 | 1010.6 |
| 20260830065718 | 93 | 360 | 5.0 | 14.0 | 0.00 | 0.00 | 0.00 | 41 | 1010.7 |
| 20260830065650 | 93 | 360 | 6.0 | 14.0 | 0.00 | 0.00 | 0.00 | 41 | 1010.7 |
| 20260830065517 | 93 | 86 | 6.0 | 14.0 | 0.00 | 0.00 | 0.00 | 40 | 1010.8 |
| 20260830065422 | 93 | 360 | 6.0 | 14.0 | 0.00 | 0.00 | 0.00 | 40 | 1010.8 |
| 20260830065336 | 93 | 69 | 7.0 | 14.0 | 0.00 | 0.00 | 0.00 | 40 | 1010.8 |
| 20260830065241 | 93 | 89 | 5.0 | 14.0 | 0.00 | 0.00 | 0.00 | 40 | 1010.7 |
| 20260830065028 | 94 | 77 | 6.0 | 14.0 | 0.00 | 0.00 | 0.00 | 40 | 1010.7 |
| 20260830064916 | 94 | 68 | 5.0 | 14.0 | 0.00 | 0.00 | 0.00 | 39 | 1010.7 |
| 20260830064849 | 94 | 66 | 4.0 | 14.0 | 0.00 | 0.00 | 0.00 | 39 | 1010.7 |
| 20260830064713 | 94 | 65 | 3.0 | 11.0 | 0.00 | 0.00 | 0.00 | 38 | 1010.7 |
| 20260830064619 | 94 | 107 | 1.0 | 11.0 | 0.00 | 0.00 | 0.00 | 38 | 1010.7 |
| 20260830064524 | 94 | 100 | 2.0 | 12.0 | 0.00 | 0.00 | 0.00 | 38 | 1010.7 |
| 20260830064437 | 94 | 102 | 2.0 | 13.0 | 0.00 | 0.00 | 0.00 | 38 | 1010.7 |
| 20260830064324 | 94 | 101 | 4.0 | 13.0 | 0.00 | 0.00 | 0.00 | 38 | 1010.7 |
| 20260830064231 | 94 | 105 | 3.0 | 13.0 | 0.00 | 0.00 | 0.00 | 38 | 1010.7 |
| 20260830064117 | 94 | 126 | 3.0 | 13.0 | 0.00 | 0.00 | 0.00 | 38 | 1010.7 |
| 20260830064021 | 94 | 120 | 3.0 | 13.0 | 0.00 | 0.00 | 0.00 | 38 | 1010.7 |
| 20260830063934 | 94 | 98 | 3.0 | 15.0 | 0.00 | 0.00 | 0.00 | 38 | 1010.7 |
| 20260830063815 | 94 | 106 | 5.0 | 15.0 | 0.00 | 0.00 | 0.00 | 38 | 1010.5 |
| 20260830063753 | 94 | 61 | 6.0 | 15.0 | 0.00 | 0.00 | 0.00 | 38 | 1010.5 |
| 20260830063616 | 94 | 101 | 5.0 | 15.0 | 0.00 | 0.00 | 0.00 | 38 | 1010.5 |
| 20260830063520 | 94 | 83 | 5.0 | 15.0 | 0.00 | 0.00 | 0.00 | 38 | 1010.5 |
| 20260830063433 | 94 | 91 | 5.0 | 15.0 | 0.00 | 0.00 | 0.00 | 38 | 1010.5 |
| 20260830063319 | 94 | 105 | 5.0 | 15.0 | 0.00 | 0.00 | 0.00 | 38 | 1010.4 |
| 20260830063222 | 94 | 94 | 6.0 | 15.0 | 0.00 | 0.00 | 0.00 | 38 | 1010.4 |
| 20260830063132 | 94 | 105 | 5.0 | 15.0 | 0.00 | 0.00 | 0.00 | 38 | 1010.4 |
| 20260830063016 | 95 | 91 | 3.0 | 10.0 | 0.00 | 0.00 | 0.00 | 38 | 1010.4 |
| 20260830062927 | 95 | 82 | 3.0 | 15.0 | 0.00 | 0.00 | 0.00 | 37 | 1010.4 |
| 20260830062830 | 95 | 109 | 2.0 | 15.0 | 0.00 | 0.00 | 0.00 | 37 | 1010.4 |
| 20260830062742 | 95 | 91 | 3.0 | 15.0 | 0.00 | 0.00 | 0.00 | 37 | 1010.4 |
| 20260830062626 | 95 | 92 | 2.0 | 15.0 | 0.00 | 0.00 | 0.00 | 37 | 1010.4 |
| 20260830062515 | 95 | 94 | 3.0 | 15.0 | 0.00 | 0.00 | 0.00 | 37 | 1010.3 |
| 20260830062447 | 95 | 102 | 3.0 | 16.0 | 0.00 | 0.00 | 0.00 | 37 | 1010.4 |
| 20260830062331 | 95 | 113 | 4.0 | 16.0 | 0.00 | 0.00 | 0.00 | 37 | 1010.4 |
| 20260830062214 | 95 | 106 | 6.0 | 16.0 | 0.00 | 0.00 | 0.00 | 37 | 1010.3 |
| 20260830062126 | 95 | 106 | 6.0 | 16.0 | 0.00 | 0.00 | 0.00 | 37 | 1010.4 |
| 20260830062032 | 95 | 110 | 5.0 | 16.0 | 0.00 | 0.00 | 0.00 | 37 | 1010.4 |
| 20260830061920 | 95 | 360 | 5.0 | 16.0 | 0.00 | 0.00 | 0.00 | 38 | 1010.2 |
| 20260830061824 | 95 | 360 | 6.0 | 16.0 | 0.00 | 0.00 | 0.00 | 38 | 1010.2 |
| 20260830061737 | 95 | 360 | 8.0 | 16.0 | 0.00 | 0.00 | 0.00 | 37 | 1010.2 |
| 20260830061622 | 95 | 360 | 9.0 | 16.0 | 0.00 | 0.00 | 0.00 | 37 | 1010.2 |
| 20260830061526 | 96 | 360 | 9.0 | 16.0 | 0.00 | 0.00 | 0.00 | 37 | 1010.2 |
| 20260830061439 | 96 | 360 | 7.0 | 16.0 | 0.00 | 0.00 | 0.00 | 37 | 1010.2 |
| 20260830061327 | 96 | 360 | 6.0 | 16.0 | 0.00 | 0.00 | 0.00 | 37 | 1010.1 |
| 20260830061212 | 96 | 360 | 6.0 | 16.0 | 0.00 | 0.00 | 0.00 | 37 | 1010.1 |
| 20260830061117 | 96 | 360 | 4.0 | 16.0 | 0.00 | 0.00 | 0.00 | 37 | 1010.1 |
| 20260830061032 | 96 | 360 | 7.0 | 16.0 | 0.00 | 0.00 | 0.00 | 37 | 1010.1 |
| 20260830060936 | 96 | 360 | 8.0 | 16.0 | 0.00 | 0.00 | 0.00 | 37 | 1010.1 |
| 20260830060821 | 96 | 360 | 7.0 | 15.0 | 0.00 | 0.00 | 0.00 | 36 | 1010.2 |
| 20260830060730 | 97 | 360 | 6.0 | 16.0 | 0.00 | 0.00 | 0.00 | 36 | 1010.2 |
| 20260830060642 | 97 | 360 | 6.0 | 16.0 | 0.00 | 0.00 | 0.00 | 36 | 1010.1 |
| 20260830060525 | 97 | 360 | 7.0 | 16.0 | 0.00 | 0.00 | 0.00 | 36 | 1010.1 |
| 20260830060431 | 97 | 360 | 6.0 | 16.0 | 0.00 | 0.00 | 0.00 | 36 | 1010.1 |
| 20260830060314 | 97 | 360 | 7.0 | 16.0 | 0.00 | 0.00 | 0.00 | 35 | 1010.0 |
| 20260830060227 | 98 | 360 | 6.0 | 16.0 | 0.00 | 0.00 | 0.00 | 35 | 1010.0 |
| 20260830060115 | 98 | 360 | 8.0 | 16.0 | 0.00 | 0.00 | 0.00 | 35 | 1010.0 |
| 20260830060032 | 98 | 360 | 9.0 | 16.0 | 0.00 | 0.00 | 0.00 | 35 | 1010.0 |
| 20260830055935 | 98 | 360 | 10.0 | 16.0 | 0.00 | 0.00 | 0.00 | 35 | 1009.9 |
| 20260830055820 | 98 | 360 | 7.0 | 16.0 | 0.00 | 0.00 | 0.00 | 34 | 1010.0 |
| 20260830055725 | 98 | 360 | 5.0 | 16.0 | 0.00 | 0.00 | 0.00 | 34 | 1009.9 |
| 20260830055633 | 98 | 360 | 6.0 | 16.0 | 0.00 | 0.00 | 0.00 | 34 | 1009.9 |
| 20260830055523 | 98 | 360 | 6.0 | 16.0 | 0.00 | 0.00 | 0.00 | 34 | 1009.8 |
| 20260830055425 | 98 | 360 | 6.0 | 16.0 | 0.00 | 0.00 | 0.00 | 34 | 1009.8 |
| 20260830055338 | 98 | 360 | 6.0 | 16.0 | 0.00 | 0.00 | 0.00 | 34 | 1009.8 |
| 20260830055242 | 98 | 360 | 4.0 | 12.0 | 0.00 | 0.00 | 0.00 | 34 | 1009.8 |
| 20260830055154 | 98 | 360 | 3.0 | 10.0 | 0.00 | 0.00 | 0.00 | 34 | 1009.8 |
| 20260830054916 | 98 | 360 | 4.0 | 10.0 | 0.00 | 0.00 | 0.00 | 34 | 1009.6 |
| 20260830054825 | 98 | 360 | 3.0 | 10.0 | 0.00 | 0.00 | 0.00 | 34 | 1009.5 |
| 20260830054731 | 98 | 360 | 4.0 | 10.0 | 0.00 | 0.00 | 0.00 | 34 | 1009.5 |
| 20260830054615 | 98 | 360 | 4.0 | 8.0 | 0.00 | 0.00 | 0.00 | 34 | 1009.4 |
| 20260830054528 | 98 | 360 | 4.0 | 8.0 | 0.00 | 0.00 | 0.00 | 34 | 1009.5 |
| 20260830054413 | 98 | 360 | 3.0 | 8.0 | 0.00 | 0.00 | 0.00 | 34 | 1009.4 |
| 20260830054338 | 98 | 360 | 2.0 | 7.0 | 0.00 | 0.00 | 0.00 | 34 | 1009.4 |
| 20260830054233 | 98 | 360 | 2.0 | 6.0 | 0.00 | 0.00 | 0.00 | 34 | 1009.5 |
| 20260830054145 | 98 | 360 | 2.0 | 7.0 | 0.00 | 0.00 | 0.00 | 34 | 1009.5 |
| 20260830054029 | 98 | 360 | 2.0 | 7.0 | 0.00 | 0.00 | 0.00 | 34 | 1009.5 |
| 20260830053934 | 98 | 360 | 1.0 | 8.0 | 0.00 | 0.00 | 0.00 | 35 | 1009.5 |
| 20260830053825 | 98 | 360 | 1.0 | 8.0 | 0.00 | 0.00 | 0.00 | 34 | 1009.5 |
| 20260830053731 | 98 | 360 | 1.0 | 8.0 | 0.00 | 0.00 | 0.00 | 34 | 1009.5 |
| 20260830053635 | 98 | 360 | 2.0 | 9.0 | 0.00 | 0.00 | 0.00 | 34 | 1009.5 |
| 20260830053531 | 98 | 360 | 2.0 | 13.0 | 0.00 | 0.00 | 0.00 | 34 | 1009.5 |
| 20260830053415 | 98 | 360 | 2.0 | 13.0 | 0.00 | 0.00 | 0.00 | 34 | 1009.5 |
| 20260830053321 | 98 | 360 | 3.0 | 13.0 | 0.00 | 0.00 | 0.00 | 34 | 1009.5 |
| 20260830053252 | 98 | 360 | 3.0 | 13.0 | 0.00 | 0.00 | 0.00 | 34 | 1009.5 |
| 20260830053117 | 98 | 360 | 3.0 | 13.0 | 0.00 | 0.00 | 0.00 | 34 | 1009.5 |
| 20260830053022 | 98 | 360 | 4.0 | 13.0 | 0.00 | 0.00 | 0.00 | 34 | 1009.4 |
| 20260830052931 | 98 | 360 | 4.0 | 13.0 | 0.00 | 0.00 | 0.00 | 34 | 1009.4 |
| 20260830052818 | 98 | 360 | 5.0 | 13.0 | 0.00 | 0.00 | 0.00 | 34 | 1009.4 |
| 20260830052730 | 98 | 360 | 4.0 | 13.0 | 0.00 | 0.00 | 0.00 | 34 | 1009.4 |
| 20260830052614 | 98 | 360 | 2.0 | 7.0 | 0.00 | 0.00 | 0.00 | 34 | 1009.4 |
| 20260830052520 | 98 | 360 | 3.0 | 7.0 | 0.00 | 0.00 | 0.00 | 34 | 1009.3 |
| 20260830052432 | 98 | 360 | 3.0 | 7.0 | 0.00 | 0.00 | 0.00 | 34 | 1009.3 |
| 20260830052339 | 98 | 360 | 2.0 | 4.0 | 0.00 | 0.00 | 0.00 | 34 | 1009.4 |
| 20260830052232 | 98 | 360 | 1.0 | 6.0 | 0.00 | 0.00 | 0.00 | 35 | 1009.4 |
| 20260830052134 | 98 | 360 | 1.0 | 8.0 | 0.00 | 0.00 | 0.00 | 35 | 1009.3 |
| 20260830052019 | 98 | 360 | 1.0 | 8.0 | 0.00 | 0.00 | 0.00 | 35 | 1009.4 |
| 20260830051922 | 98 | 360 | 1.0 | 8.0 | 0.00 | 0.00 | 0.00 | 35 | 1009.4 |
| 20260830051837 | 98 | 360 | 2.0 | 8.0 | 0.00 | 0.00 | 0.00 | 34 | 1009.4 |
| 20260830051724 | 98 | 360 | 2.0 | 8.0 | 0.00 | 0.00 | 0.00 | 34 | 1009.5 |
| 20260830051629 | 98 | 360 | 1.0 | 8.0 | 0.00 | 0.00 | 0.00 | 35 | 1009.5 |
| 20260830051515 | 98 | 360 | 2.0 | 10.0 | 0.00 | 0.00 | 0.00 | 34 | 1009.4 |
| 20260830051446 | 98 | 360 | 3.0 | 10.0 | 0.00 | 0.00 | 0.00 | 34 | 1009.4 |
| 20260830051331 | 99 | 360 | 2.0 | 10.0 | 0.00 | 0.00 | 0.00 | 34 | 1009.4 |
| 20260830051215 | 99 | 360 | 1.0 | 10.0 | 0.00 | 0.00 | 0.00 | 34 | 1009.5 |
| 20260830051152 | 99 | 360 | 1.0 | 10.0 | 0.00 | 0.00 | 0.00 | 34 | 1009.5 |
| 20260830051016 | 99 | 360 | 2.0 | 11.0 | 0.00 | 0.00 | 0.00 | 34 | 1009.4 |
| 20260830050918 | 99 | 360 | 3.0 | 11.0 | 0.00 | 0.00 | 0.00 | 33 | 1009.4 |
| 20260830050831 | 99 | 360 | 3.0 | 11.0 | 0.00 | 0.00 | 0.00 | 33 | 1009.4 |
| 20260830050716 | 99 | 360 | 4.0 | 11.0 | 0.00 | 0.00 | 0.00 | 33 | 1009.4 |
| 20260830050621 | 100 | 360 | 5.0 | 11.0 | 0.00 | 0.00 | 0.00 | 33 | 1009.3 |
| 20260830050532 | 100 | 360 | 5.0 | 11.0 | 0.00 | 0.00 | 0.00 | 33 | 1009.3 |
| 20260830050417 | 100 | 360 | 5.0 | 11.0 | 0.00 | 0.00 | 0.00 | 33 | 1009.2 |
| 20260830050330 | 100 | 360 | 5.0 | 11.0 | 0.00 | 0.00 | 0.00 | 33 | 1009.2 |
| 20260830050215 | 100 | 360 | 4.0 | 11.0 | 0.00 | 0.00 | 0.00 | 32 | 1009.2 |
| 20260830050118 | 100 | 360 | 3.0 | 12.0 | 0.00 | 0.00 | 0.00 | 32 | 1009.3 |
| 20260830050043 | 100 | 360 | 3.0 | 12.0 | 0.00 | 0.00 | 0.00 | 32 | 1009.3 |
| 20260830045921 | 100 | 105 | 1.0 | 12.0 | 0.00 | 0.00 | 0.00 | 32 | 1009.3 |
| 20260830045842 | 101 | 110 | 1.0 | 12.0 | 0.00 | 0.00 | 0.00 | 31 | 1009.3 |
| 20260830045733 | 101 | 110 | 1.0 | 12.0 | 0.00 | 0.00 | 0.00 | 31 | 1009.3 |
| 20260830045618 | 102 | 110 | 2.0 | 12.0 | 0.00 | 0.00 | 0.00 | 30 | 1009.4 |
| 20260830045521 | 102 | 109 | 3.0 | 12.0 | 0.00 | 0.00 | 0.00 | 30 | 1009.4 |
| 20260830045427 | 103 | 110 | 6.0 | 12.0 | 0.00 | 0.00 | 0.00 | 30 | 1009.4 |
| 20260830045314 | 103 | 125 | 6.0 | 12.0 | 0.00 | 0.00 | 0.00 | 30 | 1009.4 |
| 20260830045223 | 103 | 187 | 4.0 | 9.0 | 0.00 | 0.00 | 0.00 | 29 | 1009.3 |
| 20260830045137 | 103 | 200 | 2.0 | 6.0 | 0.00 | 0.00 | 0.00 | 29 | 1009.3 |
| 20260830045040 | 103 | 203 | 1.0 | 5.0 | 0.00 | 0.00 | 0.00 | 29 | 1009.3 |
| 20260830045012 | 103 | 203 | 1.0 | 8.0 | 0.00 | 0.00 | 0.00 | 28 | 1009.1 |
| 20260830044816 | 103 | 203 | 2.0 | 8.0 | 0.00 | 0.00 | 0.00 | 28 | 1009.2 |
| 20260830044725 | 103 | 204 | 2.0 | 8.0 | 0.00 | 0.00 | 0.00 | 28 | 1009.1 |
| 20260830044658 | 103 | 204 | 2.0 | 8.0 | 0.00 | 0.00 | 0.00 | 28 | 1009.1 |
| 20260830044413 | 104 | 204 | 2.0 | 8.0 | 0.00 | 0.00 | 0.00 | 28 | 1009.1 |
| 20260830044325 | 104 | 204 | 2.0 | 8.0 | 0.00 | 0.00 | 0.00 | 28 | 1009.1 |
| 20260830044230 | 103 | 204 | 2.0 | 8.0 | 0.00 | 0.00 | 0.00 | 28 | 1009.1 |
| 20260830044113 | 104 | 204 | 1.0 | 8.0 | 0.00 | 0.00 | 0.00 | 28 | 1009.1 |
| 20260830044029 | 104 | 202 | 2.0 | 6.0 | 0.00 | 0.00 | 0.00 | 28 | 1009.1 |
| 20260830043914 | 104 | 202 | 2.0 | 6.0 | 0.00 | 0.00 | 0.00 | 28 | 1009.1 |
| 20260830043820 | 104 | 202 | 2.0 | 6.0 | 0.00 | 0.00 | 0.00 | 28 | 1009.0 |
| 20260830043725 | 104 | 202 | 2.0 | 6.0 | 0.00 | 0.00 | 0.00 | 28 | 1009.0 |
| 20260830043637 | 104 | 202 | 2.0 | 6.0 | 0.00 | 0.00 | 0.00 | 28 | 1009.0 |
| 20260830043522 | 104 | 202 | 2.0 | 6.0 | 0.00 | 0.00 | 0.00 | 28 | 1009.0 |
| 20260830043451 | 104 | 202 | 2.0 | 6.0 | 0.00 | 0.00 | 0.00 | 28 | 1009.0 |
| 20260830043315 | 104 | 202 | 2.0 | 6.0 | 0.00 | 0.00 | 0.00 | 28 | 1009.0 |
| 20260830043226 | 104 | 202 | 2.0 | 6.0 | 0.00 | 0.00 | 0.00 | 28 | 1009.0 |
| 20260830043132 | 104 | 202 | 3.0 | 6.0 | 0.00 | 0.00 | 0.00 | 28 | 1009.0 |
| 20260830043017 | 104 | 203 | 2.0 | 6.0 | 0.00 | 0.00 | 0.00 | 28 | 1008.9 |
| 20260830042949 | 104 | 203 | 2.0 | 6.0 | 0.00 | 0.00 | 0.00 | 28 | 1008.9 |
| 20260830042817 | 104 | 203 | 2.0 | 6.0 | 0.00 | 0.00 | 0.00 | 28 | 1008.9 |
| 20260830042721 | 104 | 203 | 2.0 | 6.0 | 0.00 | 0.00 | 0.00 | 28 | 1008.8 |
| 20260830042633 | 104 | 203 | 2.0 | 6.0 | 0.00 | 0.00 | 0.00 | 28 | 1008.8 |
| 20260830042519 | 104 | 203 | 2.0 | 6.0 | 0.00 | 0.00 | 0.00 | 28 | 1008.8 |
| 20260830042424 | 104 | 203 | 2.0 | 6.0 | 0.00 | 0.00 | 0.00 | 28 | 1008.9 |
| 20260830042313 | 104 | 207 | 2.0 | 6.0 | 0.00 | 0.00 | 0.00 | 28 | 1008.8 |
| 20260830042217 | 104 | 212 | 2.0 | 6.0 | 0.00 | 0.00 | 0.00 | 28 | 1008.8 |
| 20260830042129 | 104 | 212 | 1.0 | 5.0 | 0.00 | 0.00 | 0.00 | 28 | 1008.8 |
| 20260830042013 | 104 | 212 | 2.0 | 5.0 | 0.00 | 0.00 | 0.00 | 28 | 1008.8 |
| 20260830041917 | 104 | 212 | 2.0 | 5.0 | 0.00 | 0.00 | 0.00 | 28 | 1008.8 |
| 20260830041830 | 104 | 212 | 2.0 | 5.0 | 0.00 | 0.00 | 0.00 | 28 | 1008.8 |
| 20260830041723 | 104 | 212 | 2.0 | 5.0 | 0.00 | 0.00 | 0.00 | 28 | 1008.7 |
| 20260830041658 | 104 | 215 | 1.0 | 4.0 | 0.00 | 0.00 | 0.00 | 28 | 1008.7 |
| 20260830041522 | 104 | 216 | 2.0 | 4.0 | 0.00 | 0.00 | 0.00 | 28 | 1008.8 |
| 20260830041427 | 104 | 216 | 2.0 | 4.0 | 0.00 | 0.00 | 0.00 | 28 | 1008.8 |
| 20260830041333 | 104 | 217 | 1.0 | 4.0 | 0.00 | 0.00 | 0.00 | 28 | 1008.8 |
| 20260830041215 | 104 | 217 | 1.0 | 4.0 | 0.00 | 0.00 | 0.00 | 28 | 1008.7 |
| 20260830041127 | 104 | 217 | 2.0 | 5.0 | 0.00 | 0.00 | 0.00 | 28 | 1008.8 |
| 20260830041034 | 104 | 217 | 1.0 | 5.0 | 0.00 | 0.00 | 0.00 | 28 | 1008.8 |
| 20260830040925 | 104 | 217 | 0.0 | 5.0 | 0.00 | 0.00 | 0.00 | 28 | 1008.8 |
| 20260830040832 | 104 | 217 | 0.0 | 5.0 | 0.00 | 0.00 | 0.00 | 28 | 1008.8 |
| 20260830040718 | 104 | 217 | 1.0 | 5.0 | 0.00 | 0.00 | 0.00 | 28 | 1008.8 |
| 20260830040623 | 104 | 217 | 2.0 | 5.0 | 0.00 | 0.00 | 0.00 | 28 | 1008.8 |
| 20260830040535 | 104 | 217 | 2.0 | 5.0 | 0.00 | 0.00 | 0.00 | 28 | 1008.7 |
| 20260830040422 | 104 | 217 | 2.0 | 5.0 | 0.00 | 0.00 | 0.00 | 28 | 1008.8 |
| 20260830040336 | 104 | 217 | 2.0 | 5.0 | 0.00 | 0.00 | 0.00 | 28 | 1008.8 |
| 20260830040220 | 104 | 217 | 1.0 | 4.0 | 0.00 | 0.00 | 0.00 | 28 | 1008.8 |
| 20260830040125 | 104 | 217 | 1.0 | 4.0 | 0.00 | 0.00 | 0.00 | 28 | 1008.7 |
| 20260830040042 | 104 | 217 | 1.0 | 4.0 | 0.00 | 0.00 | 0.00 | 28 | 1008.7 |
| 20260830035916 | 104 | 217 | 1.0 | 4.0 | 0.00 | 0.00 | 0.00 | 28 | 1008.8 |
| 20260830035834 | 104 | 217 | 1.0 | 4.0 | 0.00 | 0.00 | 0.00 | 28 | 1008.8 |
| 20260830035718 | 104 | 217 | 1.0 | 4.0 | 0.00 | 0.00 | 0.00 | 28 | 1008.7 |
| 20260830035621 | 104 | 217 | 1.0 | 4.0 | 0.00 | 0.00 | 0.00 | 28 | 1008.7 |
| 20260830035528 | 104 | 217 | 2.0 | 4.0 | 0.00 | 0.00 | 0.00 | 28 | 1008.7 |
| 20260830035418 | 104 | 217 | 1.0 | 5.0 | 0.00 | 0.00 | 0.00 | 27 | 1008.7 |
| 20260830035324 | 104 | 217 | 1.0 | 5.0 | 0.00 | 0.00 | 0.00 | 28 | 1008.7 |
| 20260830035239 | 104 | 217 | 1.0 | 6.0 | 0.00 | 0.00 | 0.00 | 28 | 1008.7 |
| 20260830035122 | 104 | 217 | 1.0 | 6.0 | 0.00 | 0.00 | 0.00 | 27 | 1008.7 |
| 20260830035028 | 104 | 218 | 1.0 | 6.0 | 0.00 | 0.00 | 0.00 | 27 | 1008.6 |
| 20260830034939 | 104 | 219 | 2.0 | 6.0 | 0.00 | 0.00 | 0.00 | 28 | 1008.6 |
| 20260830034844 | 104 | 219 | 1.0 | 6.0 | 0.00 | 0.00 | 0.00 | 28 | 1008.6 |
| 20260830034727 | 104 | 219 | 1.0 | 6.0 | 0.00 | 0.00 | 0.00 | 27 | 1008.5 |
| 20260830034617 | 104 | 219 | 2.0 | 6.0 | 0.00 | 0.00 | 0.00 | 28 | 1008.5 |
| 20260830034522 | 104 | 225 | 2.0 | 6.0 | 0.00 | 0.00 | 0.00 | 27 | 1008.5 |
| 20260830034455 | 104 | 225 | 2.0 | 6.0 | 0.00 | 0.00 | 0.00 | 27 | 1008.5 |
| 20260830034318 | 104 | 225 | 1.0 | 4.0 | 0.00 | 0.00 | 0.00 | 27 | 1008.5 |
| 20260830034223 | 104 | 226 | 1.0 | 4.0 | 0.00 | 0.00 | 0.00 | 27 | 1008.4 |
| 20260830034129 | 104 | 229 | 1.0 | 4.0 | 0.00 | 0.00 | 0.00 | 27 | 1008.4 |
| 20260830034039 | 104 | 229 | 1.0 | 5.0 | 0.00 | 0.00 | 0.00 | 27 | 1008.4 |
| 20260830033934 | 104 | 230 | 1.0 | 5.0 | 0.00 | 0.00 | 0.00 | 27 | 1008.4 |
| 20260830033818 | 104 | 235 | 1.0 | 5.0 | 0.00 | 0.00 | 0.00 | 27 | 1008.3 |
| 20260830033744 | 104 | 240 | 1.0 | 5.0 | 0.00 | 0.00 | 0.00 | 27 | 1008.2 |
| 20260830033614 | 104 | 240 | 1.0 | 5.0 | 0.00 | 0.00 | 0.00 | 27 | 1008.2 |
| 20260830033538 | 104 | 241 | 1.0 | 5.0 | 0.00 | 0.00 | 0.00 | 27 | 1008.2 |
| 20260830033429 | 104 | 241 | 1.0 | 5.0 | 0.00 | 0.00 | 0.00 | 27 | 1008.2 |
| 20260830033314 | 104 | 243 | 1.0 | 5.0 | 0.00 | 0.00 | 0.00 | 27 | 1008.2 |
| 20260830033223 | 104 | 243 | 1.0 | 5.0 | 0.00 | 0.00 | 0.00 | 27 | 1008.2 |
| 20260830033129 | 104 | 244 | 1.0 | 5.0 | 0.00 | 0.00 | 0.00 | 27 | 1008.2 |
| 20260830033014 | 104 | 244 | 1.0 | 5.0 | 0.00 | 0.00 | 0.00 | 27 | 1008.3 |
| 20260830032926 | 104 | 244 | 1.0 | 5.0 | 0.00 | 0.00 | 0.00 | 27 | 1008.2 |
| 20260830032852 | 104 | 244 | 1.0 | 5.0 | 0.00 | 0.00 | 0.00 | 27 | 1008.2 |
| 20260830032715 | 104 | 245 | 1.0 | 5.0 | 0.00 | 0.00 | 0.00 | 27 | 1008.3 |
| 20260830032632 | 104 | 245 | 1.0 | 5.0 | 0.00 | 0.00 | 0.00 | 27 | 1008.3 |
| 20260830032517 | 104 | 245 | 1.0 | 5.0 | 0.00 | 0.00 | 0.00 | 27 | 1008.2 |
| 20260830032422 | 104 | 245 | 1.0 | 5.0 | 0.00 | 0.00 | 0.00 | 27 | 1008.2 |
| 20260830032326 | 104 | 245 | 1.0 | 5.0 | 0.00 | 0.00 | 0.00 | 26 | 1008.2 |
| 20260830032239 | 105 | 245 | 1.0 | 5.0 | 0.00 | 0.00 | 0.00 | 26 | 1008.2 |
| 20260830032122 | 105 | 245 | 2.0 | 5.0 | 0.00 | 0.00 | 0.00 | 26 | 1008.1 |
| 20260830032037 | 105 | 245 | 1.0 | 4.0 | 0.00 | 0.00 | 0.00 | 26 | 1008.1 |
| 20260830031938 | 105 | 245 | 1.0 | 4.0 | 0.00 | 0.00 | 0.00 | 26 | 1008.0 |
| 20260830031831 | 105 | 245 | 1.0 | 4.0 | 0.00 | 0.00 | 0.00 | 26 | 1008.0 |
| 20260830031716 | 105 | 245 | 1.0 | 4.0 | 0.00 | 0.00 | 0.00 | 26 | 1008.0 |
| 20260830031621 | 105 | 245 | 1.0 | 4.0 | 0.00 | 0.00 | 0.00 | 26 | 1008.0 |
| 20260830031525 | 105 | 245 | 1.0 | 4.0 | 0.00 | 0.00 | 0.00 | 26 | 1008.0 |
| 20260830031413 | 105 | 245 | 1.0 | 4.0 | 0.00 | 0.00 | 0.00 | 26 | 1008.0 |
| 20260830031324 | 105 | 245 | 0.0 | 3.0 | 0.00 | 0.00 | 0.00 | 26 | 1007.9 |
| 20260830031232 | 105 | 245 | 1.0 | 3.0 | 0.00 | 0.00 | 0.00 | 26 | 1007.9 |
| 20260830031116 | 105 | 245 | 1.0 | 5.0 | 0.00 | 0.00 | 0.00 | 26 | 1008.0 |
| 20260830031019 | 105 | 245 | 1.0 | 5.0 | 0.00 | 0.00 | 0.00 | 26 | 1007.9 |
| 20260830030932 | 105 | 245 | 1.0 | 5.0 | 0.00 | 0.00 | 0.00 | 26 | 1007.9 |
| 20260830030822 | 105 | 244 | 1.0 | 5.0 | 0.00 | 0.00 | 0.00 | 26 | 1007.9 |
| 20260830030726 | 105 | 244 | 0.0 | 5.0 | 0.00 | 0.00 | 0.00 | 26 | 1007.9 |
| 20260830030631 | 105 | 244 | 0.0 | 5.0 | 0.00 | 0.00 | 0.00 | 26 | 1007.9 |
| 20260830030515 | 105 | 244 | 1.0 | 5.0 | 0.00 | 0.00 | 0.00 | 26 | 1007.8 |
| 20260830030427 | 105 | 244 | 1.0 | 5.0 | 0.00 | 0.00 | 0.00 | 26 | 1007.7 |
| 20260830030315 | 105 | 244 | 1.0 | 5.0 | 0.00 | 0.00 | 0.00 | 26 | 1007.7 |
| 20260830030218 | 105 | 244 | 2.0 | 5.0 | 0.00 | 0.00 | 0.00 | 26 | 1007.7 |
| 20260830030123 | 105 | 244 | 1.0 | 4.0 | 0.00 | 0.00 | 0.00 | 26 | 1007.6 |
| 20260830030026 | 105 | 244 | 1.0 | 4.0 | 0.00 | 0.00 | 0.00 | 26 | 1007.6 |
| 20260830025920 | 105 | 244 | 1.0 | 4.0 | 0.00 | 0.00 | 0.00 | 25 | 1007.6 |
| 20260830025826 | 105 | 244 | 1.0 | 5.0 | 0.00 | 0.00 | 0.00 | 25 | 1007.6 |
| 20260830025716 | 105 | 244 | 1.0 | 5.0 | 0.00 | 0.00 | 0.00 | 25 | 1007.6 |
| 20260830025625 | 105 | 244 | 1.0 | 5.0 | 0.00 | 0.00 | 0.00 | 25 | 1007.5 |
| 20260830025529 | 105 | 244 | 1.0 | 5.0 | 0.00 | 0.00 | 0.00 | 25 | 1007.5 |
| 20260830025414 | 105 | 244 | 1.0 | 5.0 | 0.00 | 0.00 | 0.00 | 25 | 1007.6 |
| 20260830025347 | 105 | 244 | 1.0 | 5.0 | 0.00 | 0.00 | 0.00 | 25 | 1007.6 |
| 20260830025231 | 105 | 244 | 1.0 | 5.0 | 0.00 | 0.00 | 0.00 | 25 | 1007.6 |
| 20260830025145 | 105 | 245 | 2.0 | 5.0 | 0.00 | 0.00 | 0.00 | 25 | 1007.6 |
| 20260830025028 | 105 | 244 | 2.0 | 5.0 | 0.00 | 0.00 | 0.00 | 25 | 1007.5 |
| 20260830024933 | 105 | 243 | 2.0 | 5.0 | 0.00 | 0.00 | 0.00 | 25 | 1007.5 |
| 20260830024817 | 105 | 243 | 1.0 | 5.0 | 0.00 | 0.00 | 0.00 | 25 | 1007.5 |
| 20260830024749 | 105 | 243 | 1.0 | 5.0 | 0.00 | 0.00 | 0.00 | 25 | 1007.5 |
| 20260830024535 | 105 | 238 | 1.0 | 6.0 | 0.00 | 0.00 | 0.00 | 25 | 1007.3 |
| 20260830024431 | 105 | 238 | 1.0 | 6.0 | 0.00 | 0.00 | 0.00 | 25 | 1007.3 |
| 20260830024315 | 105 | 234 | 1.0 | 6.0 | 0.00 | 0.00 | 0.00 | 25 | 1007.3 |
| 20260830024239 | 105 | 234 | 1.0 | 8.0 | 0.00 | 0.00 | 0.00 | 25 | 1007.2 |
| 20260830024130 | 105 | 233 | 1.0 | 8.0 | 0.00 | 0.00 | 0.00 | 25 | 1007.2 |
| 20260830024015 | 105 | 237 | 1.0 | 8.0 | 0.00 | 0.00 | 0.00 | 25 | 1007.1 |
| 20260830023920 | 105 | 237 | 1.0 | 8.0 | 0.00 | 0.00 | 0.00 | 25 | 1007.2 |
| 20260830023830 | 105 | 237 | 1.0 | 8.0 | 0.00 | 0.00 | 0.00 | 25 | 1007.2 |
| 20260830023714 | 105 | 236 | 1.0 | 8.0 | 0.00 | 0.00 | 0.00 | 25 | 1007.1 |
| 20260830023625 | 105 | 233 | 1.0 | 8.0 | 0.00 | 0.00 | 0.00 | 25 | 1007.1 |
| 20260830023532 | 105 | 233 | 2.0 | 8.0 | 0.00 | 0.00 | 0.00 | 25 | 1007.1 |
| 20260830023417 | 105 | 248 | 1.0 | 8.0 | 0.00 | 0.00 | 0.00 | 25 | 1007.1 |
| 20260830023328 | 105 | 248 | 1.0 | 7.0 | 0.00 | 0.00 | 0.00 | 25 | 1007.0 |
| 20260830023216 | 105 | 246 | 2.0 | 7.0 | 0.00 | 0.00 | 0.00 | 25 | 1007.1 |
| 20260830023120 | 105 | 246 | 1.0 | 7.0 | 0.00 | 0.00 | 0.00 | 25 | 1007.0 |
| 20260830023024 | 105 | 245 | 1.0 | 7.0 | 0.00 | 0.00 | 0.00 | 25 | 1007.0 |
| 20260830022939 | 105 | 245 | 1.0 | 7.0 | 0.00 | 0.00 | 0.00 | 25 | 1007.0 |
| 20260830022824 | 105 | 245 | 2.0 | 7.0 | 0.00 | 0.00 | 0.00 | 25 | 1006.9 |
| 20260830022714 | 105 | 240 | 2.0 | 7.0 | 0.00 | 0.00 | 0.00 | 25 | 1006.9 |
| 20260830022619 | 105 | 239 | 2.0 | 6.0 | 0.00 | 0.00 | 0.00 | 25 | 1006.9 |
| 20260830022524 | 105 | 239 | 2.0 | 6.0 | 0.00 | 0.00 | 0.00 | 25 | 1006.9 |
| 20260830022437 | 105 | 239 | 1.0 | 6.0 | 0.00 | 0.00 | 0.00 | 25 | 1006.9 |
| 20260830022323 | 105 | 238 | 1.0 | 6.0 | 0.00 | 0.00 | 0.00 | 25 | 1006.9 |
| 20260830022228 | 105 | 238 | 1.0 | 6.0 | 0.00 | 0.00 | 0.00 | 25 | 1007.0 |
| 20260830022116 | 105 | 239 | 2.0 | 6.0 | 0.00 | 0.00 | 0.00 | 25 | 1007.0 |
| 20260830022020 | 105 | 240 | 2.0 | 6.0 | 0.00 | 0.00 | 0.00 | 25 | 1007.0 |
| 20260830021953 | 105 | 238 | 2.0 | 6.0 | 0.00 | 0.00 | 0.00 | 25 | 1007.0 |
| 20260830021815 | 105 | 240 | 2.0 | 9.0 | 0.00 | 0.00 | 0.00 | 25 | 1006.9 |
| 20260830021719 | 105 | 231 | 2.0 | 9.0 | 0.00 | 0.00 | 0.00 | 25 | 1006.9 |
| 20260830021632 | 106 | 240 | 1.0 | 9.0 | 0.00 | 0.00 | 0.00 | 25 | 1006.9 |
| 20260830021522 | 106 | 241 | 1.0 | 9.0 | 0.00 | 0.00 | 0.00 | 25 | 1006.9 |
| 20260830021426 | 106 | 247 | 2.0 | 9.0 | 0.00 | 0.00 | 0.00 | 25 | 1006.9 |
| 20260830021317 | 106 | 246 | 2.0 | 9.0 | 0.00 | 0.00 | 0.00 | 25 | 1006.9 |
| 20260830021223 | 106 | 243 | 2.0 | 9.0 | 0.00 | 0.00 | 0.00 | 25 | 1006.9 |
| 20260830021127 | 106 | 241 | 3.0 | 9.0 | 0.00 | 0.00 | 0.00 | 25 | 1006.8 |
| 20260830021040 | 106 | 224 | 2.0 | 9.0 | 0.00 | 0.00 | 0.00 | 25 | 1006.8 |
| 20260830020928 | 106 | 234 | 1.0 | 5.0 | 0.00 | 0.00 | 0.00 | 25 | 1006.7 |
| 20260830020812 | 106 | 233 | 1.0 | 5.0 | 0.00 | 0.00 | 0.00 | 25 | 1006.7 |
| 20260830020717 | 106 | 233 | 1.0 | 5.0 | 0.00 | 0.00 | 0.00 | 25 | 1006.7 |
| 20260830020621 | 106 | 233 | 1.0 | 5.0 | 0.00 | 0.00 | 0.00 | 25 | 1006.8 |
| 20260830020534 | 106 | 233 | 1.0 | 5.0 | 0.00 | 0.00 | 0.00 | 25 | 1006.8 |
| 20260830020423 | 106 | 236 | 1.0 | 5.0 | 0.00 | 0.00 | 0.00 | 25 | 1006.7 |
| 20260830020347 | 106 | 232 | 1.0 | 5.0 | 0.00 | 0.00 | 0.00 | 25 | 1006.7 |
| 20260830020235 | 106 | 242 | 2.0 | 6.0 | 0.00 | 0.00 | 0.00 | 24 | 1006.6 |
| 20260830020119 | 106 | 243 | 2.0 | 9.0 | 0.00 | 0.00 | 0.00 | 24 | 1006.6 |
| 20260830020043 | 106 | 243 | 2.0 | 9.0 | 0.00 | 0.00 | 0.00 | 24 | 1006.6 |
| 20260830015917 | 106 | 250 | 1.0 | 9.0 | 0.00 | 0.00 | 0.00 | 24 | 1006.6 |
| 20260830015842 | 106 | 247 | 1.0 | 9.0 | 0.00 | 0.00 | 0.00 | 24 | 1006.5 |
| 20260830015738 | 106 | 246 | 1.0 | 9.0 | 0.00 | 0.00 | 0.00 | 24 | 1006.5 |
| 20260830015622 | 107 | 243 | 1.0 | 9.0 | 0.00 | 0.00 | 0.00 | 24 | 1006.7 |
| 20260830015528 | 107 | 238 | 2.0 | 9.0 | 0.00 | 0.00 | 0.00 | 24 | 1006.5 |
| 20260830015413 | 107 | 243 | 2.0 | 9.0 | 0.00 | 0.00 | 0.00 | 24 | 1006.6 |
| 20260830015316 | 107 | 241 | 2.0 | 9.0 | 0.00 | 0.00 | 0.00 | 24 | 1006.5 |
| 20260830015229 | 107 | 237 | 2.0 | 9.0 | 0.00 | 0.00 | 0.00 | 24 | 1006.5 |
| 20260830015118 | 107 | 247 | 2.0 | 9.0 | 0.00 | 0.00 | 0.00 | 24 | 1006.6 |
| 20260830015023 | 107 | 247 | 2.0 | 9.0 | 0.00 | 0.00 | 0.00 | 24 | 1006.5 |
| 20260830014926 | 107 | 247 | 2.0 | 9.0 | 0.00 | 0.00 | 0.00 | 24 | 1006.6 |
| 20260830014840 | 107 | 247 | 2.0 | 9.0 | 0.00 | 0.00 | 0.00 | 24 | 1006.6 |
| 20260830014744 | 107 | 247 | 3.0 | 10.0 | 0.00 | 0.00 | 0.00 | 23 | 1006.6 |
| 20260830014627 | 107 | 248 | 3.0 | 10.0 | 0.00 | 0.00 | 0.00 | 23 | 1006.5 |
| 20260830014513 | 107 | 248 | 4.0 | 11.0 | 0.00 | 0.00 | 0.00 | 23 | 1006.6 |
| 20260830014437 | 107 | 248 | 2.0 | 11.0 | 0.00 | 0.00 | 0.00 | 23 | 1006.5 |
| 20260830014326 | 107 | 248 | 2.0 | 11.0 | 0.00 | 0.00 | 0.00 | 23 | 1006.5 |
| 20260830014231 | 107 | 249 | 2.0 | 11.0 | 0.00 | 0.00 | 0.00 | 23 | 1006.5 |
| 20260830014115 | 107 | 248 | 2.0 | 11.0 | 0.00 | 0.00 | 0.00 | 23 | 1006.6 |
| 20260830014019 | 107 | 248 | 3.0 | 11.0 | 0.00 | 0.00 | 0.00 | 23 | 1006.5 |
| 20260830013936 | 108 | 248 | 3.0 | 11.0 | 0.00 | 0.00 | 0.00 | 23 | 1006.5 |
| 20260830013821 | 108 | 248 | 3.0 | 11.0 | 0.00 | 0.00 | 0.00 | 23 | 1006.6 |
| 20260830013728 | 108 | 218 | 2.0 | 11.0 | 0.00 | 0.00 | 0.00 | 23 | 1006.6 |
| 20260830013613 | 108 | 245 | 0.0 | 1.0 | 0.00 | 0.00 | 0.00 | 23 | 1006.6 |
| 20260830013518 | 108 | 243 | 0.0 | 0.0 | 0.00 | 0.00 | 0.00 | 23 | 1006.6 |
| 20260830013434 | 108 | 243 | 0.0 | 2.0 | 0.00 | 0.00 | 0.00 | 23 | 1006.6 |
| 20260830013318 | 108 | 243 | 0.0 | 2.0 | 0.00 | 0.00 | 0.00 | 23 | 1006.7 |
| 20260830013223 | 108 | 242 | 0.0 | 2.0 | 0.00 | 0.00 | 0.00 | 23 | 1006.6 |
| 20260830013136 | 108 | 242 | 0.0 | 2.0 | 0.00 | 0.00 | 0.00 | 23 | 1006.6 |
| 20260830013021 | 108 | 241 | 0.0 | 2.0 | 0.00 | 0.00 | 0.00 | 23 | 1006.6 |
| 20260830012926 | 108 | 240 | 0.0 | 2.0 | 0.00 | 0.00 | 0.00 | 23 | 1006.7 |
| 20260830012813 | 108 | 240 | 0.0 | 2.0 | 0.00 | 0.00 | 0.00 | 23 | 1006.6 |
| 20260830012725 | 108 | 240 | 0.0 | 2.0 | 0.00 | 0.00 | 0.00 | 22 | 1006.6 |